GFSWCAN_sfc_wetblb_000.txt.gz
Wetbulb
50.24 49.97 49.95 50.23 50.05 50.18 50.44 50.74 50.99 51.32 51.69 52.34 51.28 50.72 50.48 50.15 50.35 55.59 60.54 61.49 60.05 56.70 54.38 56.24 55.88 54.50 53.52 53.69 49.81 51.76 50.12 51.73 50.42 38.24 39.87 43.48 38.93 42.87 41.85 42.78 38.15 36.40 35.85 33.50 36.15 32.97 30.46 46.85 45.47 39.39 45.23 47.83 46.35 45.34
48.66 48.88 49.24 49.45 49.69 49.85 49.92 50.03 50.28 50.68 50.89 51.13 51.82 50.72 50.77 50.49 50.29 51.69 60.31 60.75 61.73 59.02 55.21 59.05 57.74 58.06 56.64 56.27 55.01 54.18 51.32 50.85 51.85 47.51 43.90 45.94 37.36 36.65 40.77 37.04 45.42 39.29 43.00 41.35 40.37 39.64 47.67 48.55 47.04 48.70 47.76 46.45 45.71 44.90
47.61 47.96 48.28 48.99 49.41 48.95 49.27 49.24 49.56 49.97 50.56 50.93 51.08 50.83 50.65 50.86 50.69 51.83 60.95 61.35 62.54 59.54 55.54 54.98 53.88 57.22 59.44 58.74 61.47 52.27 55.56 54.65 53.45 54.57 44.86 40.60 34.80 42.14 34.60 40.68 43.52 45.05 47.49 44.26 42.69 45.50 46.36 48.14 49.14 48.68 48.10 46.76 46.82 46.30
46.98 47.04 47.04 47.72 48.71 48.74 48.84 48.89 48.73 49.23 49.91 50.42 50.90 50.47 50.94 50.99 50.68 51.51 60.08 60.81 60.40 53.18 38.24 54.02 57.10 55.71 58.05 59.03 58.63 59.87 57.62 57.65 56.35 52.09 41.62 37.34 36.43 47.87 40.66 43.70 44.11 45.95 46.36 44.22 43.34 46.26 47.26 47.28 47.58 47.52 46.83 47.24 46.62 46.65
46.52 46.64 46.82 47.00 47.31 48.27 48.26 48.48 48.34 48.48 49.13 49.19 49.78 49.15 49.20 51.53 50.96 55.77 61.17 60.69 60.93 57.22 45.70 52.07 55.15 55.85 57.11 58.23 57.06 57.78 57.06 55.20 53.15 45.10 37.15 39.13 49.32 48.82 48.13 45.83 43.85 46.62 43.98 42.03 40.91 46.90 46.31 46.02 46.76 46.75 45.65 45.48 46.30 45.25
46.32 46.34 46.50 46.48 46.73 47.23 47.72 47.88 48.10 48.19 47.52 47.81 48.61 49.24 49.09 49.75 50.00 59.32 54.66 60.13 60.40 60.63 52.20 44.52 54.70 52.97 55.02 56.42 56.15 55.35 55.77 55.18 53.88 49.44 41.72 48.02 51.84 48.97 38.06 38.81 45.38 47.49 48.45 48.57 45.89 48.76 47.78 47.40 47.51 47.31 45.56 45.05 44.50 43.01
46.36 46.23 46.23 46.36 46.36 46.61 47.07 47.58 47.70 47.88 47.63 47.42 48.95 48.91 49.02 49.45 56.69 54.70 52.40 53.68 51.37 59.55 50.19 44.46 48.16 50.80 52.39 54.58 54.88 54.54 55.79 54.42 53.03 51.18 48.69 47.65 49.24 48.26 38.23 38.00 44.93 46.89 47.78 48.55 48.91 47.87 44.85 45.59 44.36 46.62 44.74 43.93 42.83 42.83
45.78 46.11 45.86 45.75 45.93 46.02 46.20 47.11 47.68 48.07 48.01 48.57 48.81 49.01 49.22 49.05 50.63 54.39 55.58 53.18 53.02 56.60 54.31 44.50 42.41 44.48 51.01 45.48 45.37 49.90 48.40 49.48 50.30 48.81 47.30 45.73 48.66 47.08 40.43 44.94 46.64 47.57 47.99 46.77 46.29 46.63 46.07 46.61 46.52 44.36 43.64 42.34 39.75 38.48
45.43 45.38 45.56 45.41 45.68 45.81 45.86 46.72 47.40 47.83 48.39 48.48 48.74 49.13 53.50 53.16 52.69 54.74 48.85 50.48 59.20 54.65 49.12 41.69 37.70 36.61 49.75 43.45 44.33 44.88 46.48 39.87 47.68 40.96 42.80 44.34 40.37 37.99 42.88 44.54 45.64 47.15 45.52 44.90 45.92 45.70 44.82 42.79 41.83 41.35 40.25 39.01 37.52 37.28
45.57 45.60 45.61 45.50 45.89 45.89 46.32 46.55 46.80 47.61 48.16 48.19 49.81 46.65 40.96 44.91 48.73 49.70 53.57 51.92 50.43 52.65 50.30 39.33 46.48 40.42 46.32 40.24 38.06 40.24 40.24 38.75 36.05 38.41 40.36 35.70 38.08 44.45 46.10 47.08 47.46 46.25 46.61 46.36 42.50 40.59 40.89 39.58 38.83 38.19 37.65 38.35 37.84 36.49
45.97 45.85 45.61 45.82 46.04 46.36 47.06 46.98 47.40 47.56 47.97 46.04 41.31 38.23 43.92 47.29 49.71 47.05 41.49 41.31 41.24 39.33 43.71 42.60 41.77 39.30 45.45 39.05 36.97 40.57 35.89 36.61 33.86 36.77 36.40 34.19 34.35 40.30 45.01 45.58 45.62 45.91 46.06 45.54 44.99 43.85 41.95 39.13 37.50 37.16 37.57 37.48 35.73 34.85
45.74 46.08 45.90 46.02 45.91 46.68 46.41 46.77 47.14 48.04 45.71 44.46 44.18 45.49 44.49 41.05 36.81 37.68 35.89 36.07 36.59 38.50 38.54 35.48 39.73 43.36 41.56 45.40 39.90 35.56 34.25 33.35 31.69 37.75 32.62 32.69 39.38 43.78 43.93 43.23 44.15 44.88 44.13 42.06 41.27 39.34 38.83 38.08 38.29 37.09 36.76 35.69 33.72 33.47
44.47 45.79 46.08 45.90 46.05 46.97 46.48 45.98 46.28 46.19 46.20 43.41 38.71 35.30 36.40 32.95 31.35 31.90 31.35 32.44 33.35 34.07 34.55 34.39 33.50 36.58 37.13 38.55 33.51 32.97 31.53 32.08 36.14 32.61 31.43 36.36 40.54 42.34 43.30 43.48 42.79 41.64 37.94 38.42 38.45 38.50 38.16 36.72 35.67 31.94 33.13 32.85 32.34 33.09
43.88 45.48 46.09 45.84 46.14 46.57 46.05 45.32 45.56 46.64 42.59 35.35 32.62 31.53 32.08 31.90 32.62 32.62 32.44 32.26 33.89 33.53 34.44 34.80 33.17 34.07 33.17 32.99 32.26 31.72 33.17 34.40 30.23 28.92 30.61 37.57 39.76 41.50 42.67 42.80 40.63 37.12 32.56 34.47 35.52 36.41 33.96 33.81 32.28 32.09 32.00 32.38 30.72 31.16
43.82 45.44 46.04 45.86 45.11 44.79 44.36 44.10 44.14 47.04 42.81 35.74 34.96 30.99 31.90 33.17 33.35 32.80 32.44 33.71 34.24 36.89 35.34 34.07 34.07 35.37 32.44 31.53 32.62 32.25 29.22 28.45 30.32 31.24 34.39 37.23 38.73 38.77 37.90 38.98 35.62 33.50 31.44 33.65 36.13 34.26 32.27 32.13 31.54 32.56 33.11 32.94 33.11 33.00
44.01 44.27 46.18 45.24 45.02 44.52 44.46 45.41 44.97 44.22 40.91 37.19 35.03 32.99 32.99 32.99 32.26 32.26 32.08 32.44 37.02 36.04 37.86 37.15 32.62 32.44 31.72 32.76 30.11 29.98 29.39 28.14 33.30 36.07 39.13 36.56 35.45 35.95 36.01 36.26 35.90 36.50 35.28 35.44 35.25 34.67 33.90 32.99 31.79 32.99 33.94 33.29 33.06 32.59
43.04 44.04 45.31 44.17 43.51 43.35 43.79 43.53 42.46 36.95 35.43 33.57 31.70 33.35 33.35 33.53 32.44 32.80 34.62 35.89 39.64 35.16 32.26 34.42 31.14 29.17 32.60 30.61 29.61 33.53 31.49 33.89 34.98 38.45 36.99 36.33 35.57 36.24 36.68 36.59 34.36 35.01 35.44 35.58 35.13 35.09 34.47 34.27 34.62 33.27 31.84 34.09 34.37 34.33
43.82 45.39 44.41 44.26 45.61 43.90 41.56 42.10 39.89 37.26 33.24 35.50 34.64 33.15 35.33 34.80 33.35 34.25 36.07 39.20 38.38 35.94 36.43 32.62 34.53 29.91 29.47 28.24 30.52 35.21 36.95 35.91 38.52 37.76 36.55 36.85 37.12 36.95 37.27 36.72 37.67 36.61 35.91 34.94 34.91 34.81 34.23 33.54 33.39 34.46 35.33 36.08 35.21 34.96
43.59 45.82 44.44 43.89 44.83 41.66 37.06 37.13 38.63 33.72 32.57 33.93 34.56 35.75 34.82 34.06 35.73 36.00 35.34 37.43 38.50 38.18 36.86 34.76 31.77 30.33 32.38 34.81 34.62 32.99 35.34 37.14 36.83 36.74 37.90 37.04 36.57 35.82 35.23 35.19 34.72 35.13 34.81 34.68 35.03 35.27 35.94 35.72 35.89 36.51 36.81 36.74 35.85 36.39
43.87 44.05 43.68 42.43 42.68 39.39 34.36 36.22 39.80 35.53 33.20 34.45 35.08 34.61 33.27 32.75 33.59 33.15 33.89 34.98 35.97 36.41 32.70 31.85 33.33 36.02 36.66 38.01 39.33 38.89 38.86 39.09 38.50 36.47 35.80 36.89 38.06 36.80 36.20 36.66 36.47 36.43 36.11 36.06 36.07 34.01 36.47 36.50 37.39 37.28 36.73 36.05 35.50 34.75
42.92 42.35 41.45 41.63 39.33 40.28 37.92 35.65 34.86 36.08 34.91 32.58 33.17 35.26 30.47 32.90 32.79 33.53 33.35 35.84 33.35 33.24 32.24 36.16 36.58 35.74 40.18 39.47 40.07 39.95 38.74 38.33 36.88 37.27 35.58 34.37 37.04 37.16 36.18 36.68 37.00 37.09 36.66 36.73 36.31 36.03 35.83 36.01 36.59 37.81 34.78 33.89 33.66 32.93
40.50 41.43 37.27 37.80 34.55 35.27 35.54 37.48 35.57 36.62 34.09 32.34 32.03 34.84 30.09 29.23 29.69 31.32 33.63 31.87 32.17 34.98 37.39 38.15 38.53 39.40 38.74 36.73 38.19 38.20 37.86 36.67 37.13 36.79 33.62 34.38 34.77 35.40 36.13 37.32 36.93 36.18 36.60 36.44 35.85 35.33 35.73 37.73 37.14 36.96 34.62 33.35 33.41 33.35
39.92 37.46 34.96 33.71 31.90 32.26 30.32 36.11 32.85 32.84 28.80 29.26 31.77 28.68 28.09 28.62 29.84 31.54 28.66 31.84 34.09 37.43 39.07 39.02 38.95 39.10 37.71 38.79 36.81 37.08 37.54 36.53 35.35 36.19 38.01 37.36 37.37 36.25 37.10 37.02 36.93 34.73 34.73 35.92 37.06 36.40 36.08 34.59 35.03 33.51 32.99 32.61 32.44 32.26
37.74 32.22 31.90 31.72 32.44 28.74 32.54 29.49 32.83 31.23 31.31 29.46 28.27 26.85 27.78 28.30 29.85 28.30 27.16 31.56 35.16 37.99 36.52 36.63 36.78 35.87 36.92 35.59 34.63 36.41 37.20 37.80 36.65 39.21 37.66 36.46 34.95 35.36 36.39 36.25 36.39 36.39 36.56 37.05 36.28 35.28 34.49 32.99 32.64 32.88 32.41 31.88 31.60 31.28
30.50 28.53 30.36 26.74 31.31 28.19 26.47 26.43 27.54 28.27 26.14 27.80 26.86 26.39 26.35 28.70 26.30 26.26 26.11 31.48 32.00 30.84 31.97 35.01 36.57 36.50 36.68 36.99 37.17 36.53 35.72 35.63 34.46 34.13 35.67 36.09 35.14 35.09 34.69 35.29 35.49 35.92 36.32 34.17 33.35 32.62 32.59 32.62 32.44 32.02 31.66 31.36 29.82 29.56
26.33 28.50 28.14 28.71 28.31 28.33 27.71 25.09 26.10 26.81 27.00 25.48 26.23 27.56 28.45 27.23 24.31 24.07 28.45 30.64 30.03 29.54 30.23 30.91 32.28 33.40 33.64 33.56 32.12 30.86 30.18 31.61 30.50 28.95 31.31 30.69 29.56 28.89 28.21 28.27 29.16 30.63 28.68 29.96 29.92 30.06 30.23 31.19 31.27 30.90 30.25 29.65 29.82 29.53
25.36 26.32 29.08 31.40 30.93 29.51 27.69 29.30 30.23 27.92 25.21 24.53 26.36 25.00 24.97 21.23 22.28 27.99 29.33 27.50 27.95 28.54 29.73 30.53 29.98 28.30 27.82 27.96 28.52 28.61 29.01 28.02 26.47 26.01 27.99 29.71 30.42 27.32 25.77 23.54 22.81 24.63 27.68 28.19 28.32 28.16 27.67 28.28 28.72 29.00 28.85 29.91 29.36 28.86
28.96 29.55 24.51 28.82 28.89 30.63 26.57 26.75 25.70 25.23 27.16 30.10 28.63 23.63 22.82 23.78 24.78 26.05 25.13 26.97 27.88 29.06 29.86 29.92 28.35 26.67 26.57 26.05 27.25 27.46 25.36 25.11 25.69 26.67 27.95 28.87 29.48 25.85 23.56 24.10 24.45 23.75 24.52 24.77 25.09 25.68 26.25 26.47 26.40 26.65 25.96 25.43 26.30 27.66
27.52 31.14 29.36 24.65 27.38 28.17 27.97 27.48 28.06 30.49 32.58 31.93 28.14 26.94 27.87 24.00 23.88 24.31 24.09 25.04 27.19 26.26 24.48 23.62 23.84 25.72 25.97 26.07 27.00 25.24 23.20 21.01 17.65 15.02 14.82 17.22 18.30 19.04 20.94 21.35 20.86 20.66 21.43 21.01 22.01 23.46 24.03 25.06 25.20 25.07 24.74 25.26 23.76 24.31
26.48 30.83 27.64 26.07 25.06 26.29 29.33 31.72 31.03 31.29 34.16 33.17 33.79 29.45 25.35 20.97 21.19 23.69 23.49 22.61 21.33 20.85 22.15 22.71 22.49 21.08 20.21 19.64 19.74 20.67 22.43 20.00 17.85 15.04 12.22 12.26 13.64 17.01 17.97 17.50 16.54 17.81 18.73 18.82 19.17 20.20 22.32 22.16 22.79 24.75 21.18 19.42 17.90 18.59
29.07 29.64 27.41 28.14 27.49 28.86 28.99 29.33 29.93 30.40 31.09 31.36 31.68 29.86 22.28 18.94 18.86 19.22 19.60 21.55 21.48 20.54 19.74 18.74 19.32 19.80 17.50 17.05 16.26 15.28 15.12 18.45 17.58 16.37 15.70 15.78 15.35 15.10 14.77 14.69 15.17 16.35 16.41 16.62 16.78 18.13 18.38 17.58 19.18 18.52 16.15 14.05 13.30 12.75
28.51 27.04 27.12 25.16 27.52 28.68 29.43 28.30 28.47 27.82 30.24 27.41 28.46 25.10 23.62 22.52 16.75 16.05 17.11 18.89 18.12 16.25 15.38 15.65 14.63 14.74 16.71 17.54 19.13 18.68 16.66 16.80 16.90 15.90 14.88 14.58 13.28 13.21 13.22 13.17 13.91 13.81 12.10 12.49 14.84 16.63 15.04 14.37 14.64 12.39 11.63 9.58 8.58 7.19
26.47 26.57 25.70 25.52 25.51 24.99 27.41 26.63 25.99 25.13 26.30 25.19 24.49 22.63 18.98 18.54 12.99 15.28 18.65 18.76 16.64 14.69 14.10 14.37 15.08 16.52 17.27 17.13 15.11 17.55 15.97 15.79 14.55 15.48 14.60 13.02 11.45 11.12 11.04 11.74 12.24 11.06 8.76 8.66 13.54 13.94 11.74 10.08 8.42 7.78 6.36 4.96 3.53 1.89

GFSWCAN_sfc_wetblb_003.txt.gz
Wetbulb
50.24 49.87 49.73 49.58 49.77 50.06 50.44 50.77 50.92 51.51 52.20 51.47 50.46 50.18 50.33 50.37 50.16 53.85 56.06 57.05 56.52 48.38 49.44 53.21 53.57 48.37 49.24 47.12 38.97 45.24 41.89 42.23 36.04 32.90 32.51 32.10 29.42 32.04 31.87 37.01 33.34 29.77 27.28 29.64 28.43 24.65 22.30 43.81 42.85 34.06 38.34 42.49 43.02 42.28
49.64 49.19 49.19 49.35 49.80 50.21 50.21 50.13 50.46 50.87 51.48 51.19 50.21 50.03 50.23 50.53 50.14 51.47 56.10 57.47 58.60 53.33 51.26 54.50 53.67 53.43 52.30 51.88 48.88 46.86 43.02 46.71 42.92 36.55 35.75 36.93 32.02 34.23 30.35 26.95 40.99 32.07 35.36 32.11 32.89 31.36 40.03 44.28 42.44 45.48 45.32 42.95 42.50 41.26
48.08 48.66 48.75 49.11 49.44 49.90 49.24 49.43 49.89 50.42 51.02 51.06 50.61 49.99 50.05 50.39 50.36 51.28 55.65 56.63 57.30 49.06 49.65 50.45 49.91 54.43 56.14 54.69 55.52 46.32 45.70 50.44 48.53 46.79 39.37 38.10 33.60 36.74 30.95 33.83 32.56 39.76 43.95 34.02 34.99 41.57 42.56 44.14 46.24 46.59 45.57 44.07 44.01 43.97
47.00 47.20 47.79 48.28 48.91 50.06 49.06 48.81 49.13 49.87 50.51 50.60 50.26 49.70 49.08 50.26 50.30 51.47 55.71 56.50 54.00 47.25 36.11 46.24 54.17 52.36 55.06 55.76 55.41 54.76 52.20 52.33 49.95 44.53 37.85 35.73 32.30 41.79 33.85 35.93 33.60 38.29 42.88 38.77 36.33 41.54 43.07 44.35 45.00 45.30 44.90 45.36 45.44 46.35
46.53 46.59 46.73 47.11 47.81 48.37 48.76 49.10 48.57 48.91 49.13 47.74 48.28 48.61 48.30 48.88 49.98 52.42 56.86 56.14 56.27 51.31 38.34 41.92 51.77 53.30 55.19 54.96 54.25 54.09 52.08 50.26 45.61 38.03 35.36 34.05 34.68 37.99 35.14 34.24 32.89 43.35 39.75 34.28 33.15 42.85 42.18 42.33 44.78 45.85 44.41 44.27 45.34 44.93
46.14 46.39 46.39 46.50 46.82 47.40 47.90 48.30 48.66 48.19 47.58 47.54 47.90 48.23 48.97 48.52 49.17 54.44 50.71 55.24 53.11 56.03 45.65 37.31 49.15 49.18 51.45 52.65 52.24 51.78 51.56 50.03 47.97 40.04 35.17 40.62 47.92 39.26 33.82 32.43 41.72 45.51 46.47 45.68 41.36 46.07 45.33 44.97 45.88 46.68 43.91 42.91 41.22 40.24
45.74 45.91 45.98 46.18 46.40 46.86 47.36 47.79 48.01 48.10 46.51 47.31 48.17 48.78 49.39 49.76 52.91 50.06 48.59 50.52 49.40 53.34 41.62 37.90 36.64 45.34 48.39 50.78 48.83 49.14 50.55 48.34 46.63 40.53 36.19 36.01 39.24 43.70 34.46 34.98 42.06 45.05 45.73 45.12 46.97 45.78 42.44 44.56 42.51 44.95 43.24 41.21 41.12 38.20
45.48 45.47 45.46 45.84 45.99 46.22 46.61 47.25 48.10 48.41 48.12 47.29 48.39 49.39 49.83 48.93 49.31 50.74 51.96 50.13 49.91 51.51 45.43 37.81 37.33 38.68 47.87 38.81 38.45 45.26 41.15 44.02 44.74 42.55 41.16 37.18 39.13 34.62 31.92 41.28 44.26 45.84 45.73 44.64 44.61 44.84 44.34 45.38 45.15 43.08 41.33 37.92 35.68 34.39
45.23 45.19 45.33 45.70 45.77 46.09 46.27 46.59 47.52 48.25 48.54 48.12 49.19 49.59 52.13 49.81 45.19 49.23 48.89 48.91 54.49 49.30 37.04 36.25 35.14 34.15 44.63 40.73 40.19 39.42 42.12 35.55 41.84 36.09 38.26 39.73 35.53 35.77 39.70 42.16 43.34 43.58 42.91 42.53 43.80 44.99 44.57 41.58 39.95 38.83 36.77 35.22 33.81 32.63
45.33 45.24 45.45 45.63 46.02 46.27 46.24 46.29 47.45 48.34 48.36 48.68 49.59 47.15 40.26 43.87 47.85 49.04 49.82 42.95 41.29 40.80 41.98 35.89 40.90 36.27 42.44 35.71 35.00 36.27 35.18 34.44 34.10 35.66 39.45 33.72 35.22 40.24 43.07 43.52 43.67 43.25 44.15 44.05 40.02 38.20 38.32 37.78 35.83 34.97 34.54 34.82 34.30 32.81
45.90 45.74 45.81 46.09 46.23 45.98 46.61 47.22 47.72 48.00 48.66 46.53 41.15 38.08 43.73 47.38 48.39 43.42 37.90 36.70 38.30 35.83 40.41 39.45 37.67 36.95 41.20 35.59 34.61 35.71 33.54 33.72 31.86 31.67 34.20 31.67 31.64 36.80 41.24 42.20 42.95 44.00 44.60 44.48 43.15 40.98 38.91 36.60 34.78 33.80 33.04 32.24 30.75 30.12
46.25 46.25 45.99 46.36 46.11 46.21 46.84 47.34 47.51 47.33 45.08 44.61 44.18 45.36 43.84 40.76 36.99 36.44 35.17 34.79 35.18 35.27 35.68 36.25 37.54 38.87 37.51 42.08 34.91 34.05 33.51 32.80 29.73 35.40 32.25 28.86 32.63 39.74 40.85 41.06 42.31 41.93 40.32 38.89 38.66 37.10 36.22 35.90 35.16 31.12 30.88 30.21 27.44 29.17
45.18 46.06 46.06 46.61 46.48 46.15 46.00 46.09 46.25 45.93 45.61 43.16 39.45 35.31 37.30 32.93 31.67 32.06 31.06 32.19 32.63 33.16 34.23 33.69 33.16 34.61 35.78 37.00 32.96 32.96 31.89 30.82 33.66 31.50 29.10 28.65 38.58 40.93 41.61 36.82 35.40 36.15 35.01 35.35 35.34 35.00 34.09 33.13 31.77 27.01 27.56 25.93 27.35 29.95
44.54 45.85 45.96 46.10 46.03 45.56 44.88 44.68 45.38 45.36 41.36 35.01 33.54 31.45 31.69 30.75 31.50 30.96 31.50 31.91 32.99 32.65 33.17 33.54 32.63 33.33 32.63 32.78 31.88 30.54 31.11 31.44 28.52 24.54 22.52 32.87 38.25 39.67 39.32 36.25 34.25 32.47 30.41 30.69 31.76 30.96 28.95 28.26 26.10 24.00 24.64 24.80 22.15 24.52
44.39 45.58 46.13 44.71 44.96 44.89 45.25 45.18 45.12 44.56 39.52 33.46 33.38 29.91 30.58 31.68 32.06 32.09 32.27 32.45 33.29 35.11 33.90 33.14 32.95 33.75 31.69 30.55 31.33 29.81 27.40 26.25 27.96 28.15 30.61 33.01 35.33 36.27 34.52 34.25 31.11 29.50 28.89 30.32 32.00 29.27 27.22 26.29 24.12 27.19 27.00 27.71 30.68 31.47
44.10 44.45 44.96 45.03 44.63 44.95 44.88 45.30 42.96 40.88 33.70 34.12 32.58 30.77 31.92 32.00 31.91 32.12 32.12 31.94 35.72 34.08 34.44 33.49 31.33 31.50 30.01 30.02 27.97 28.13 27.18 25.72 29.67 31.72 32.36 32.59 32.83 32.65 32.90 32.49 31.69 32.21 31.81 31.87 31.50 30.20 29.51 26.59 25.60 28.11 30.41 32.07 31.46 31.68
43.83 42.18 45.04 44.04 44.08 44.17 44.46 41.99 39.30 33.27 32.88 32.22 30.46 32.25 32.43 32.27 31.61 32.06 32.48 33.54 37.36 33.54 31.88 32.07 29.39 27.20 30.05 27.99 27.58 31.17 29.30 31.50 32.25 32.22 32.05 32.95 32.51 32.85 33.18 33.18 31.20 32.28 32.33 31.95 30.58 31.96 29.42 28.03 27.45 30.96 29.65 30.68 28.38 29.06
42.12 44.46 44.72 44.75 45.03 43.98 40.10 40.18 36.49 33.79 29.05 31.20 31.64 31.17 32.43 32.45 32.25 32.63 33.36 35.17 34.10 32.12 31.41 29.96 31.30 27.97 27.22 25.90 26.88 30.82 31.00 32.45 31.53 31.70 31.59 32.31 33.16 33.22 34.29 32.48 34.37 32.34 31.86 29.74 28.98 30.07 28.06 26.57 28.60 30.44 30.70 31.67 30.24 29.01
42.79 44.61 44.25 43.79 42.99 38.46 34.28 34.88 36.70 30.75 30.70 31.80 32.06 32.53 32.43 32.07 32.99 33.36 33.19 34.06 34.94 34.24 32.59 30.04 28.44 26.37 27.42 28.95 31.86 32.03 32.45 31.38 30.21 31.06 31.52 32.98 33.03 32.30 32.46 32.85 32.22 31.46 31.35 31.40 31.33 30.30 30.39 31.91 31.17 30.77 30.45 29.14 29.34 28.99
43.50 43.92 43.18 43.11 42.47 34.85 32.09 32.76 37.02 31.27 30.26 31.61 32.48 31.65 31.09 30.79 31.89 32.27 32.63 33.17 33.20 32.92 30.77 25.59 26.42 29.36 29.10 29.94 31.12 30.68 31.32 31.60 30.23 28.26 29.16 30.16 30.62 32.09 31.94 31.29 30.47 31.88 30.97 31.71 30.62 27.63 28.81 29.95 29.83 29.14 26.21 26.31 26.92 27.88
42.11 41.98 42.02 41.16 37.16 38.26 34.33 32.80 32.42 33.16 30.21 30.71 31.29 31.07 28.82 30.99 31.23 32.06 32.27 32.99 32.60 31.71 25.30 27.20 31.09 33.01 30.51 30.51 31.02 31.19 31.40 30.96 29.60 28.46 27.60 27.88 29.23 29.39 29.40 30.03 30.90 29.36 28.00 26.40 25.03 28.50 25.02 28.49 31.12 29.49 31.68 32.01 28.99 32.63
40.82 42.01 35.86 37.29 32.92 32.57 31.47 32.80 32.68 30.42 30.95 30.41 30.25 31.41 27.79 27.27 28.26 29.81 31.24 30.20 30.06 28.07 28.17 27.86 29.12 29.56 29.23 30.79 30.63 31.72 32.49 31.94 31.77 28.94 28.31 27.36 27.07 27.14 27.34 27.44 26.13 24.72 25.77 27.15 27.32 29.16 28.94 28.13 25.66 24.98 30.48 32.18 32.44 32.27
39.94 37.99 34.25 32.80 30.54 30.34 29.11 32.68 30.87 30.23 24.96 26.45 28.54 26.45 26.67 26.49 28.14 29.33 27.07 28.99 27.81 28.91 29.82 30.19 32.09 32.81 31.65 32.54 30.98 32.00 31.14 31.33 27.74 27.68 26.17 27.18 27.55 24.70 25.90 27.18 25.00 23.57 27.76 28.76 27.86 29.67 30.53 28.85 24.46 26.23 28.17 31.37 31.33 31.71
38.43 33.13 30.71 30.35 29.96 27.57 31.15 27.65 31.17 29.34 28.93 27.24 26.45 25.09 24.65 26.30 25.46 24.10 22.21 23.04 26.08 29.06 31.09 30.79 28.93 28.18 28.57 28.14 29.26 30.04 30.51 30.40 29.02 28.48 30.54 28.64 27.32 28.61 28.61 27.77 27.96 28.44 27.10 30.09 30.35 31.10 31.81 30.42 23.58 29.18 30.46 30.07 30.18 25.43
30.23 25.76 25.94 26.71 30.75 23.98 18.99 23.89 27.20 24.79 24.18 24.71 25.15 24.13 23.90 22.50 21.77 16.97 17.16 21.97 24.96 28.28 30.29 31.59 30.47 29.82 27.10 28.50 29.60 28.21 27.78 27.64 26.23 24.87 24.21 26.51 24.21 24.04 24.27 24.19 24.04 23.84 25.79 24.83 25.23 26.14 26.72 28.29 29.02 28.35 26.88 24.07 24.42 18.12
25.18 24.98 21.93 26.45 27.33 23.05 22.22 23.76 24.83 24.11 24.20 24.78 25.08 21.85 21.71 22.44 14.35 13.56 23.31 28.13 27.95 27.92 28.75 28.83 28.35 28.57 26.99 27.26 25.20 25.75 26.03 24.90 22.95 17.67 21.67 23.49 24.44 23.63 20.87 19.84 19.38 19.74 20.63 22.74 22.08 21.28 20.85 21.89 23.63 25.26 27.53 26.72 23.39 24.08
24.34 25.43 29.05 30.43 30.41 28.71 27.60 27.97 27.33 23.46 22.87 23.03 23.58 21.95 17.80 10.12 10.45 23.41 26.64 27.10 27.35 27.97 29.34 28.97 27.39 26.10 25.90 26.07 26.11 26.91 24.00 21.24 18.47 21.37 21.87 23.63 22.40 20.82 18.84 16.10 15.47 17.19 19.15 19.57 18.44 18.61 19.04 20.06 20.92 21.37 23.43 22.69 24.25 25.05
28.50 28.67 24.52 27.90 28.52 28.68 25.32 24.60 23.80 22.63 22.91 25.59 24.02 18.09 15.12 13.64 18.74 24.24 25.28 26.72 27.32 28.82 27.96 25.53 25.41 23.88 25.33 25.47 25.03 20.14 15.41 15.01 15.22 15.88 19.61 24.07 19.64 15.55 14.66 13.49 16.03 17.00 15.30 16.77 15.88 17.20 17.96 18.95 19.74 20.48 21.80 21.73 21.74 18.27
27.15 29.35 27.15 22.56 23.72 24.32 22.72 21.05 20.86 24.58 27.46 23.76 18.35 17.10 20.06 21.52 22.16 23.48 24.15 24.96 25.87 24.62 22.24 21.23 16.39 16.56 16.37 17.26 21.96 16.52 11.56 11.89 8.29 4.32 2.22 2.77 7.32 8.98 13.23 13.70 12.21 11.71 13.03 14.10 15.23 17.43 17.55 19.95 18.77 19.02 20.23 17.37 17.51 13.07
26.12 29.48 21.88 19.09 17.26 21.57 26.61 28.41 28.53 29.47 26.17 29.42 27.33 22.97 21.29 19.78 19.40 21.03 21.13 18.89 16.30 17.54 20.36 21.00 13.63 10.69 9.24 6.71 7.23 11.20 15.39 9.03 4.07 3.57 0.57 2.19 8.20 10.33 10.67 10.54 10.22 10.47 11.85 11.54 10.77 12.57 16.34 17.18 18.02 18.38 13.79 13.00 13.13 9.54
28.10 28.21 26.30 24.52 25.95 27.10 27.74 27.92 28.51 28.73 29.17 29.02 27.14 22.91 15.88 14.45 13.25 15.73 14.96 18.10 16.14 12.42 11.58 9.77 12.31 10.17 5.80 7.11 8.75 3.57 2.61 3.63 6.24 8.51 3.89 3.58 6.26 2.41 4.73 8.01 7.83 9.55 10.01 7.96 7.84 9.39 13.23 12.63 13.47 11.69 7.42 7.56 7.04 5.62
27.59 25.20 25.99 22.48 24.79 27.67 28.03 26.40 26.38 26.11 26.90 25.77 23.85 23.03 19.18 15.25 6.69 7.57 8.46 11.81 8.73 5.98 7.05 3.87 3.75 7.82 4.37 7.87 10.53 6.15 14.65 10.26 10.03 2.73 2.72 4.47 0.57 0.02 2.03 4.67 6.62 7.84 6.08 5.77 7.30 7.56 10.84 9.35 7.76 6.34 5.65 3.16 2.45 1.57
23.10 19.91 20.19 15.90 14.79 14.31 22.11 15.58 14.90 13.55 14.56 13.62 16.49 13.94 9.99 7.77 3.06 7.71 12.10 13.71 6.44 2.75 1.77 1.42 1.72 2.61 9.74 4.98 1.48 7.87 5.23 1.27 2.83 11.01 11.20 10.34 6.26 3.82 0.95 2.19 6.73 6.37 0.34 3.71 5.34 8.86 7.14 6.69 3.67 2.27 1.03 -0.37 -1.78 -2.66

GFSWCAN_sfc_wetblb_006.txt.gz
Wetbulb
50.07 49.82 49.28 49.11 49.45 49.59 50.05 50.20 50.30 50.63 50.03 49.40 49.42 49.55 49.70 49.80 50.07 54.96 53.36 54.88 52.40 45.92 47.86 51.55 50.99 47.21 46.67 44.09 38.68 43.71 41.16 39.53 34.68 28.73 25.48 31.24 29.57 31.06 30.09 34.16 31.72 28.99 25.68 23.29 22.98 18.75 22.35 40.20 41.40 33.60 37.07 39.99 41.86 41.14
49.52 49.14 48.77 48.72 48.93 49.72 50.01 49.90 49.95 50.60 50.37 49.48 49.32 49.41 49.51 49.78 49.96 52.86 53.03 55.89 55.69 50.10 49.60 52.20 52.39 52.22 51.19 49.31 46.59 44.10 41.37 42.17 39.32 34.68 34.82 36.97 31.52 33.02 26.29 27.11 38.17 30.91 32.48 29.89 32.36 31.44 38.27 41.16 41.10 42.46 43.55 41.59 41.68 40.69
48.84 48.79 48.65 48.77 48.90 49.49 49.31 49.29 49.50 49.95 50.06 49.42 49.07 48.84 48.68 49.72 50.29 53.26 53.97 54.04 52.48 44.62 45.97 48.42 48.84 53.37 54.53 53.27 52.33 44.41 42.69 48.59 45.77 41.66 36.30 36.21 27.53 34.39 30.44 32.20 31.87 38.56 41.71 32.99 34.44 39.93 40.79 42.38 44.33 45.28 44.49 43.01 42.94 42.69
48.33 48.35 48.51 48.62 48.71 48.93 48.69 48.82 48.85 49.24 49.22 48.12 47.59 47.77 48.15 48.28 49.87 52.99 53.65 53.67 48.74 42.65 35.44 43.55 52.58 50.90 54.41 54.85 54.19 51.78 50.25 49.13 45.95 40.87 35.45 35.14 28.44 38.27 30.26 33.23 31.99 35.81 40.47 37.26 34.50 39.29 41.31 43.28 43.71 44.19 44.01 43.83 43.54 44.48
46.94 46.96 47.41 47.90 48.24 49.11 49.10 48.44 48.26 47.25 47.00 47.84 48.26 48.87 48.93 49.06 49.20 53.66 54.03 52.35 53.46 47.42 37.84 41.56 49.28 52.16 53.20 53.52 52.68 51.77 50.38 47.77 42.08 36.86 33.31 33.21 30.47 35.77 34.52 31.74 31.67 40.50 38.38 33.80 34.52 40.32 40.83 40.99 43.82 44.49 43.46 43.41 44.60 44.22
46.20 46.46 46.51 46.73 47.32 48.09 48.44 49.11 47.94 46.47 46.98 47.72 48.46 49.28 49.92 49.85 50.24 53.11 48.27 52.62 50.98 52.24 42.69 35.89 44.80 47.21 49.50 51.81 51.14 49.79 49.55 47.89 44.16 39.05 35.26 37.96 44.12 36.04 34.02 35.83 40.57 43.55 45.14 43.75 41.01 44.23 44.58 43.86 44.52 45.06 43.49 43.65 41.34 38.49
45.76 46.06 46.14 46.46 46.73 47.21 47.93 48.04 47.90 46.65 46.64 47.74 48.74 49.26 49.49 49.14 50.58 49.12 45.17 49.70 48.40 49.84 40.18 38.02 35.32 42.54 46.97 47.80 45.27 46.30 47.50 45.83 44.85 38.32 35.75 37.01 36.56 40.57 34.20 31.38 40.16 43.06 44.91 44.92 45.57 44.99 41.67 43.11 42.52 44.66 41.21 39.44 37.71 35.82
45.44 45.67 45.79 45.89 46.32 46.67 47.12 47.68 48.24 47.59 46.69 47.77 49.48 49.65 49.91 49.05 50.05 49.30 50.23 49.14 50.07 47.54 41.27 35.33 34.43 36.35 45.74 37.30 37.66 42.93 38.91 42.75 42.43 40.28 37.64 35.80 37.03 33.55 33.22 39.86 42.72 44.63 45.42 44.41 45.32 43.78 43.37 44.06 42.21 40.43 38.40 36.67 34.28 32.86
45.25 45.39 45.49 45.74 45.69 45.65 46.10 47.43 48.08 48.26 47.70 48.51 49.16 49.97 49.12 47.39 45.40 49.67 47.88 47.70 51.86 46.50 36.67 34.02 34.14 33.43 41.84 39.54 37.46 35.69 40.89 34.00 40.15 35.86 36.21 38.34 34.93 35.39 39.31 40.88 42.21 43.26 42.33 42.48 43.16 42.85 43.16 42.22 38.09 37.05 36.05 34.99 32.93 31.89
45.14 45.31 45.40 45.45 45.58 45.83 46.14 47.19 47.77 48.32 48.24 48.84 47.57 42.85 40.92 43.43 47.46 48.74 45.92 42.51 41.55 41.51 41.10 34.38 37.88 36.03 41.01 34.38 34.22 34.56 34.20 34.22 34.04 36.12 39.21 33.85 35.33 39.40 40.26 43.12 43.04 42.76 43.26 43.18 38.70 37.38 37.05 36.21 34.76 34.86 34.43 34.70 34.04 32.13
45.67 45.67 45.47 45.76 46.11 46.28 46.84 47.41 47.95 48.35 48.50 46.11 41.80 38.39 43.98 47.28 45.68 41.31 36.48 36.15 37.56 35.85 38.90 37.96 36.36 36.84 37.52 35.16 34.75 34.56 33.48 32.93 32.01 30.63 34.55 30.30 31.79 35.10 39.61 40.46 42.02 42.71 43.92 42.24 39.45 38.37 37.63 36.21 34.65 34.06 33.22 32.08 30.42 29.95
46.12 46.05 45.94 45.57 45.80 46.24 46.55 47.05 47.63 46.02 44.66 44.76 44.11 45.15 43.35 40.16 37.39 36.00 34.70 34.86 34.56 34.47 34.86 35.11 35.83 39.08 36.74 38.85 35.24 34.17 33.27 32.92 29.79 34.61 32.37 29.74 31.87 37.74 39.10 37.66 37.59 37.64 37.39 36.71 37.13 35.99 35.51 34.49 33.96 31.07 29.32 28.78 27.07 27.01
45.49 46.10 46.31 45.69 45.38 45.37 45.56 45.81 46.14 45.86 45.35 43.22 39.67 35.49 38.11 33.20 32.72 34.78 33.20 32.57 32.56 32.92 34.19 33.66 34.02 34.38 35.89 37.11 33.11 32.92 32.19 30.95 33.39 31.63 29.89 30.86 38.04 36.30 35.08 34.71 34.63 35.71 34.89 34.08 34.08 34.22 33.63 32.49 30.58 27.14 27.73 24.76 22.67 26.60
45.21 45.18 45.35 45.13 44.83 45.10 45.07 45.30 45.60 44.46 41.44 35.30 34.22 31.71 32.37 29.60 30.70 30.67 31.41 32.03 32.57 32.39 32.75 32.93 32.37 33.11 32.39 32.77 32.19 30.87 31.23 31.41 28.65 25.88 23.04 32.13 36.66 35.39 35.24 34.90 33.74 33.18 31.83 31.72 31.57 30.51 28.08 27.59 27.08 24.76 23.19 22.92 19.80 22.73
44.04 45.21 45.31 44.62 44.78 44.86 45.07 44.81 44.59 42.15 37.18 33.14 32.80 28.78 28.80 30.35 31.98 32.13 32.22 32.39 32.92 34.34 33.48 33.10 32.54 33.55 31.42 30.48 31.08 29.38 27.12 25.44 27.11 27.00 30.16 32.00 34.72 35.19 33.42 32.30 29.99 28.98 29.06 30.48 31.23 29.02 27.04 25.18 22.99 25.43 24.60 23.44 28.26 29.79
43.94 44.77 43.58 44.24 44.39 44.76 44.58 43.29 41.16 38.19 33.86 33.30 32.03 30.00 31.61 31.28 31.62 32.22 32.06 32.06 35.20 33.66 33.64 32.90 31.26 30.90 29.01 29.38 26.77 26.91 25.98 24.72 28.48 31.63 31.23 33.44 33.62 32.18 32.18 31.44 31.38 32.12 31.72 31.43 30.63 29.75 28.61 25.35 24.24 26.43 27.50 27.49 26.00 26.02
44.22 41.82 44.61 44.35 44.63 44.50 43.63 39.72 34.74 32.91 30.71 31.71 30.14 32.03 32.19 31.88 31.58 32.04 32.42 33.11 36.49 33.11 31.26 31.44 25.46 25.06 29.79 26.98 26.77 30.70 28.47 30.88 32.39 32.37 31.95 32.45 32.03 32.47 32.75 32.63 30.97 31.85 32.13 31.64 30.21 31.64 28.36 26.47 23.60 25.23 26.54 30.48 27.40 27.70
40.85 43.39 44.49 43.93 43.98 42.02 37.64 39.20 34.68 31.16 29.21 30.95 30.04 31.09 31.82 32.03 32.04 32.40 32.77 33.66 33.81 31.21 32.03 29.35 30.32 27.15 26.22 24.35 26.05 30.55 30.91 32.21 32.18 32.04 31.79 32.01 32.49 32.64 33.36 31.91 33.28 31.43 30.84 28.73 27.64 28.58 26.99 24.90 27.16 28.93 30.01 30.64 28.33 27.98
41.80 43.30 43.50 43.78 42.43 37.04 34.34 34.22 35.10 26.21 29.30 30.56 31.08 31.44 31.24 32.01 31.95 32.37 32.57 33.46 33.37 32.04 31.23 28.02 23.46 22.99 27.19 28.85 31.61 31.80 32.01 29.95 29.97 30.40 30.76 32.21 32.28 31.54 31.48 31.98 31.44 31.04 30.83 30.73 30.83 29.28 29.44 30.72 29.77 29.32 29.17 27.19 24.72 23.70
43.07 42.69 42.86 42.86 41.48 32.77 31.44 31.11 35.30 28.89 29.58 29.28 31.23 30.52 30.16 30.04 31.21 32.01 32.40 32.57 32.42 31.76 30.02 22.88 23.42 24.77 27.50 28.61 28.77 26.61 27.37 27.98 26.35 25.29 27.42 28.99 28.94 30.89 31.18 30.53 29.04 30.35 29.55 30.68 29.00 24.84 27.57 28.76 29.19 28.44 24.54 28.86 30.63 29.33
41.54 41.01 40.33 37.89 36.23 33.10 32.62 31.48 31.46 32.33 29.23 29.88 30.53 29.41 27.89 30.19 29.48 30.74 32.03 32.18 31.80 30.34 24.17 26.14 30.83 31.94 27.64 27.62 26.64 26.78 28.70 27.71 26.31 24.80 24.63 25.26 26.76 26.73 27.13 27.74 28.39 26.92 25.48 24.14 21.05 25.98 23.28 25.49 28.71 28.12 28.00 31.61 31.24 31.19
39.36 40.28 32.90 35.61 32.33 32.25 31.88 32.53 31.76 30.97 30.18 29.49 29.26 29.63 27.51 26.71 27.69 29.26 29.67 28.44 28.71 24.61 25.31 24.28 29.45 27.97 27.65 29.55 29.03 30.17 31.12 30.65 29.93 26.33 24.90 25.36 26.21 26.50 26.66 26.61 25.55 22.72 23.02 21.79 24.71 26.36 28.04 26.43 28.25 28.25 29.89 26.94 28.66 29.73
38.98 37.12 33.61 32.99 29.42 28.61 25.36 32.47 30.50 29.34 25.77 26.60 29.19 25.44 24.95 25.84 27.53 28.76 26.41 28.84 28.65 26.80 28.63 28.25 30.65 32.70 32.59 30.42 29.62 29.94 29.47 29.41 28.26 27.53 25.25 25.78 25.51 21.78 23.42 23.98 21.56 20.89 23.74 26.04 27.16 26.94 25.96 26.47 29.13 29.70 29.89 29.19 30.57 30.05
38.39 33.10 29.86 27.82 28.17 25.50 28.21 28.28 30.69 27.98 26.36 25.89 25.51 23.66 22.54 24.41 25.49 23.88 15.74 21.48 29.38 29.27 28.96 28.29 26.83 29.99 28.59 27.65 26.40 25.75 26.10 26.44 24.81 23.48 24.34 22.82 21.90 22.66 22.52 21.47 20.90 21.23 21.10 22.01 21.98 21.31 22.35 21.77 22.65 23.77 25.44 26.31 28.29 28.51
28.82 20.72 27.16 15.33 26.20 20.81 15.00 16.29 23.34 20.92 16.01 18.45 20.87 17.90 21.37 22.22 12.56 10.29 13.06 22.54 26.40 28.21 28.64 29.14 26.89 29.22 27.53 26.44 26.59 25.68 24.17 23.73 22.13 21.55 18.48 20.94 15.72 16.58 18.71 19.86 18.03 17.39 17.12 16.18 15.81 15.01 15.49 16.30 17.54 19.19 20.81 22.66 24.14 25.50
23.52 21.54 24.57 20.24 18.39 17.98 17.64 18.38 16.87 17.25 17.14 23.79 23.58 20.67 22.59 22.50 17.42 10.88 21.07 24.97 26.36 26.01 27.32 26.55 26.65 25.55 25.43 25.24 23.92 22.73 20.77 21.84 20.88 15.86 20.32 19.85 17.31 12.84 10.32 10.31 11.34 10.78 14.25 14.27 14.52 12.07 12.15 13.56 14.86 15.78 16.49 18.37 21.87 21.83
17.60 19.35 25.47 28.46 28.44 25.87 26.19 26.72 26.51 24.71 21.60 21.89 16.43 21.50 21.38 17.19 13.83 19.85 24.22 25.31 25.82 26.34 26.02 25.86 25.66 24.56 23.72 24.24 22.29 19.78 16.94 15.54 13.44 16.23 19.29 17.26 15.38 14.57 12.46 10.21 8.53 10.51 11.56 11.70 12.29 11.29 11.12 12.02 12.99 13.50 15.85 17.60 19.40 15.48
24.79 23.57 21.01 24.97 27.15 27.51 24.51 24.15 23.78 23.39 24.35 25.40 23.46 18.81 16.91 11.81 14.82 20.74 22.67 25.08 25.76 24.06 23.15 23.10 23.04 22.54 21.72 18.51 16.41 11.71 9.70 9.75 10.53 16.81 15.42 12.23 9.54 9.04 5.53 2.83 3.96 12.10 5.82 6.45 9.83 10.16 10.16 12.24 12.76 14.67 15.01 15.93 12.65 12.56
25.83 28.05 26.90 23.52 23.71 23.22 24.17 23.43 23.40 26.19 28.23 23.25 17.92 16.12 18.44 18.80 17.43 18.70 19.64 21.11 23.22 22.49 18.91 17.05 13.31 13.72 15.09 15.16 9.85 5.60 3.98 4.06 2.47 -2.14 -5.65 -7.46 -5.11 0.87 5.05 0.00 -1.00 3.93 5.51 7.96 8.92 10.41 11.41 12.34 15.85 15.28 13.99 12.41 9.56 8.44
22.91 24.09 18.99 16.92 18.98 21.02 24.53 26.34 26.30 27.26 27.36 27.57 21.15 20.59 18.33 15.63 15.87 17.01 16.85 17.63 16.85 16.04 16.01 12.21 8.40 8.30 -0.03 -0.78 -2.75 3.48 4.71 -4.56 -0.64 -2.32 -7.28 -5.29 -0.96 0.86 -2.06 0.27 3.48 3.53 4.91 6.70 4.44 5.14 7.98 9.97 12.54 10.36 9.69 8.91 7.54 5.41
26.58 26.69 24.82 21.08 23.13 25.11 25.78 27.22 27.98 28.31 28.42 27.45 20.94 16.40 12.12 12.05 13.65 14.02 13.34 12.41 11.12 9.27 7.52 3.70 3.89 -0.39 0.87 1.91 -0.03 -4.02 -1.32 4.52 2.03 -2.21 -3.11 -3.29 -5.47 -8.91 -6.92 -2.77 -1.79 -1.21 3.01 3.05 1.01 3.70 4.11 3.44 4.75 4.77 2.74 3.07 2.55 1.69
24.88 22.75 19.36 19.95 17.33 24.35 26.73 25.49 25.13 22.99 22.72 19.64 18.56 17.99 13.03 7.53 -0.39 2.83 7.35 4.57 3.47 0.49 -4.93 -6.19 -4.20 -0.57 -0.24 1.15 1.15 1.01 1.07 -2.39 -2.75 -1.66 0.31 -0.43 -5.11 -8.37 -6.56 -3.51 -2.83 -4.93 0.08 -4.58 -3.09 2.55 0.65 -1.85 -1.35 -0.57 -1.24 -1.31 -1.50 -1.84
12.66 6.90 10.01 2.72 10.21 9.75 8.78 8.13 5.09 5.15 10.41 14.82 13.29 5.97 4.67 3.49 1.08 4.97 7.89 2.58 0.12 -3.67 -4.93 -5.47 -7.83 -8.55 -4.38 -3.91 -5.42 -6.39 -1.90 -6.38 -6.56 2.51 3.96 4.05 -0.74 -2.21 -5.65 -5.65 -4.93 -9.09 -11.45 -10.00 -7.64 -1.93 -4.93 -5.11 -5.11 -3.57 -3.59 -4.11 -4.49 -4.67

GFSWCAN_sfc_wetblb_012.txt.gz
Wetbulb
49.56 49.28 48.93 48.73 49.13 49.13 49.44 49.26 49.47 49.21 49.00 48.90 49.13 49.04 49.18 50.92 51.75 54.76 52.55 52.17 48.49 44.85 46.00 48.62 47.78 43.88 43.55 41.80 37.52 41.58 39.70 38.01 31.28 28.38 25.15 25.62 22.54 29.44 28.63 31.63 30.77 29.45 25.39 20.64 21.42 15.38 21.37 36.58 38.35 33.45 37.13 36.05 39.48 39.38
49.07 48.57 48.46 48.60 48.58 48.74 48.96 48.97 49.67 49.07 48.51 46.80 47.19 47.73 49.02 50.39 51.61 54.51 53.10 53.99 51.77 48.17 46.94 49.76 50.14 49.22 48.41 46.66 43.67 40.87 41.50 39.95 37.99 31.27 24.84 29.55 29.95 30.65 25.26 25.87 34.47 29.06 30.63 27.12 28.36 28.51 35.54 37.83 37.80 39.62 39.68 38.95 39.69 39.72
48.41 48.29 48.44 48.40 48.39 48.69 48.86 48.54 47.99 47.64 46.87 47.57 47.90 48.01 49.38 50.45 51.90 53.64 52.61 49.77 47.86 43.19 45.38 47.30 46.69 51.24 52.48 50.76 49.22 42.49 39.53 43.45 39.59 37.83 31.19 31.86 25.62 28.29 26.81 28.84 29.10 34.98 36.20 29.98 32.18 36.35 36.79 38.29 39.89 41.46 42.06 41.04 41.37 41.80
48.28 48.16 48.10 48.28 48.25 48.30 48.31 47.19 46.29 46.99 47.72 47.90 48.55 48.82 49.90 50.90 51.52 52.37 50.63 49.18 45.44 41.26 35.65 41.77 49.64 48.64 51.86 52.44 50.76 48.20 45.74 43.09 40.66 38.06 29.94 32.54 26.76 34.13 25.97 31.12 29.81 34.61 36.94 34.20 32.31 37.03 37.35 39.70 41.28 41.97 42.37 42.94 42.38 42.67
47.98 47.86 47.77 47.89 48.00 47.57 46.72 46.67 46.83 47.19 47.86 48.53 49.02 49.42 50.09 50.52 51.52 52.39 50.64 49.17 48.87 44.41 36.96 37.72 46.56 48.02 49.98 50.34 48.74 47.95 46.25 43.61 39.30 33.95 30.58 31.67 29.10 33.49 33.46 32.36 31.10 37.39 36.07 31.79 31.12 38.15 37.89 38.33 40.71 42.50 42.71 42.84 43.11 41.76
47.91 47.77 47.84 47.86 47.26 46.38 46.49 46.51 46.72 47.41 47.77 48.24 48.30 48.64 49.31 50.17 50.49 45.99 43.63 48.67 50.53 46.89 41.81 36.57 42.16 43.86 46.89 48.40 48.15 47.60 46.75 43.17 41.08 37.97 32.11 34.06 37.84 34.19 33.58 29.29 38.00 39.62 40.24 39.98 39.17 39.20 39.65 39.92 41.62 42.49 42.82 42.96 42.80 40.10
47.43 47.43 47.55 47.46 47.62 46.92 45.82 46.47 46.92 47.37 48.58 48.75 48.78 48.95 49.19 49.52 50.02 43.43 41.12 46.98 47.95 46.19 40.03 37.17 36.02 40.41 43.17 45.31 43.45 44.14 45.30 42.92 41.54 38.09 33.63 30.23 35.89 36.82 34.14 28.40 40.95 41.04 42.00 42.43 42.68 41.22 39.94 40.89 41.62 42.60 42.90 40.53 36.60 35.21
46.44 46.65 46.89 47.12 47.23 47.19 46.18 45.58 46.45 47.48 48.58 48.87 48.56 48.61 48.88 49.15 48.94 47.84 48.57 47.75 47.30 42.79 39.13 33.53 33.47 35.30 42.94 37.30 37.05 42.66 38.17 41.20 41.03 38.68 37.35 35.24 36.77 35.04 33.75 38.25 40.07 41.87 42.51 42.27 42.24 42.71 41.68 41.44 36.79 34.32 34.89 34.35 33.14 32.52
45.31 45.64 45.84 46.36 46.92 46.80 46.67 45.44 46.42 48.26 49.12 48.05 47.59 48.30 48.41 47.14 46.12 47.66 47.48 47.25 47.59 44.33 35.05 34.39 32.87 32.10 41.38 37.94 36.56 37.56 40.00 34.20 39.80 35.85 35.29 38.22 33.47 33.70 36.46 37.14 37.82 39.35 39.48 40.29 40.76 41.06 38.20 33.73 33.13 33.75 34.02 34.22 32.79 32.18
45.45 45.41 45.59 45.91 46.24 46.65 46.74 45.98 47.18 48.74 48.23 47.40 46.34 42.00 39.55 44.33 47.64 46.99 44.38 40.22 39.00 39.04 39.83 33.47 37.37 35.48 42.05 34.21 34.21 34.24 34.38 35.68 33.91 35.46 38.83 34.02 34.71 36.09 33.93 34.99 35.16 37.27 39.52 39.96 35.22 31.13 31.44 32.95 34.28 35.03 34.59 34.27 33.64 33.05
45.54 45.70 45.91 46.31 46.56 46.59 46.90 47.43 47.64 47.98 47.38 43.57 40.29 39.29 45.26 45.81 43.28 37.33 35.18 33.95 37.07 36.40 37.71 36.33 35.44 34.89 39.72 35.95 35.12 33.99 33.29 32.75 31.80 30.34 34.38 32.42 31.79 31.26 32.56 33.24 34.41 34.92 35.38 35.31 35.65 36.42 36.44 35.53 34.40 33.74 33.50 33.99 32.90 32.20
45.66 45.46 45.26 45.62 46.01 46.51 46.78 46.87 46.91 44.83 42.63 42.88 43.88 43.22 40.38 38.16 36.08 33.96 32.77 33.82 34.39 31.26 34.35 34.92 35.29 37.92 35.65 36.88 35.81 34.37 33.55 32.34 30.57 33.86 32.39 29.06 29.37 32.44 32.68 33.43 35.35 36.02 36.56 36.53 37.18 36.65 36.83 36.85 36.58 34.46 32.17 30.40 28.82 28.69
44.99 45.08 45.09 44.90 45.04 45.75 45.81 45.75 45.69 45.61 44.21 40.97 37.68 34.40 37.06 33.77 33.82 32.14 30.72 32.16 32.37 32.55 33.63 33.31 33.84 33.47 35.46 35.64 33.29 33.23 32.18 31.32 32.81 30.88 29.76 30.13 33.61 35.49 35.97 35.87 36.40 37.26 36.73 36.32 36.51 36.00 33.29 31.21 30.49 28.75 28.86 27.43 26.81 27.97
44.63 44.54 44.60 44.74 44.74 44.78 44.83 45.30 45.02 43.81 42.04 36.04 34.58 33.11 32.86 31.32 30.50 30.14 31.41 31.83 32.01 32.39 32.57 32.93 32.57 32.93 32.39 33.26 32.19 31.75 31.42 31.07 28.85 25.99 23.90 30.88 33.40 33.56 34.27 34.15 33.55 31.83 29.58 29.93 30.07 29.97 28.77 28.52 27.94 26.88 26.25 25.55 24.19 25.70
44.31 44.07 43.92 43.87 44.39 44.38 44.20 43.46 43.48 41.68 37.30 32.71 32.61 28.15 28.40 30.52 31.59 31.81 32.03 32.39 32.57 33.79 32.93 32.92 32.70 34.00 31.98 31.15 30.85 29.47 24.32 20.10 19.98 17.39 29.22 31.60 32.72 32.42 30.48 31.12 32.28 31.34 27.82 28.53 29.67 28.55 27.50 26.72 26.11 26.97 26.72 25.63 26.52 25.94
43.78 43.21 42.05 43.75 44.14 43.89 43.38 40.53 37.90 35.78 31.66 32.62 31.35 29.87 30.88 31.11 30.91 31.87 32.04 32.24 34.88 33.11 33.10 33.23 31.41 29.89 28.80 29.55 24.32 22.44 22.17 18.63 25.75 31.21 31.45 32.24 31.57 31.77 32.40 33.20 32.75 32.40 31.03 30.69 30.29 28.67 27.02 23.10 22.62 25.78 25.06 23.90 23.16 23.79
43.52 40.82 43.16 43.65 43.37 42.08 42.34 35.88 31.76 30.65 31.76 31.16 30.11 32.24 31.59 31.92 31.65 32.05 32.42 32.75 35.59 33.11 31.18 30.65 24.00 24.16 29.11 21.36 21.11 26.19 21.48 28.58 32.34 32.00 32.70 32.78 32.54 33.29 33.38 32.99 31.13 31.58 31.56 30.49 29.18 29.48 27.24 24.51 22.86 25.08 27.39 29.45 27.60 26.20
38.04 38.72 42.86 43.24 40.89 38.58 35.61 33.15 28.27 29.21 29.72 30.52 29.69 30.71 31.78 31.84 32.05 32.22 32.21 32.73 32.77 32.00 31.53 28.09 30.54 23.51 18.13 17.47 18.83 28.44 30.10 31.86 28.93 29.54 30.58 33.04 32.03 32.31 32.31 30.73 30.80 30.32 29.96 27.88 27.08 27.86 26.01 26.10 26.67 27.26 27.64 28.04 26.45 25.63
39.36 40.35 41.78 41.90 38.95 32.17 29.92 31.15 30.94 27.34 29.00 30.53 30.34 30.13 30.71 30.89 30.99 31.62 32.01 32.73 29.10 26.24 27.34 23.09 19.65 19.56 21.31 23.38 28.82 31.98 32.12 31.06 29.55 30.67 31.29 30.98 30.11 29.61 30.18 30.28 29.87 29.33 28.58 28.37 27.91 26.73 26.19 27.29 26.68 26.23 26.11 26.38 25.97 27.67
41.42 41.22 40.28 40.18 38.72 29.63 28.10 27.28 32.65 29.58 28.29 29.13 30.22 29.39 29.03 29.15 30.25 31.35 32.21 32.37 31.75 26.87 23.51 21.18 21.27 22.50 23.44 22.78 24.34 25.92 33.17 32.53 24.37 21.74 23.31 24.65 28.30 29.36 28.06 27.35 26.66 27.33 26.14 26.74 26.88 26.14 25.56 24.82 24.61 25.20 24.50 24.42 24.36 25.15
37.27 37.37 38.01 35.17 31.65 31.28 28.83 28.55 29.29 30.45 30.40 29.38 28.89 28.51 27.22 29.25 28.83 29.41 30.07 30.82 30.60 29.06 24.46 23.29 21.50 29.10 29.47 28.76 25.05 24.90 28.64 25.81 24.24 24.53 27.60 26.75 26.44 26.43 25.44 24.68 23.95 23.44 23.29 21.97 21.60 21.79 21.35 21.31 21.09 19.03 16.52 17.29 19.63 21.91
34.31 37.48 29.93 31.68 30.72 31.44 28.41 31.59 30.37 29.32 29.24 29.03 28.25 28.48 26.42 25.49 26.19 27.59 28.94 28.22 28.12 28.06 28.44 22.93 27.90 31.18 30.10 28.93 28.30 29.36 29.25 28.41 28.23 27.10 25.87 24.21 22.96 23.49 21.60 20.43 19.74 18.28 19.26 18.37 18.12 14.37 11.48 15.69 14.97 13.96 12.71 14.06 18.49 18.57
35.76 31.86 25.83 24.85 19.64 18.27 24.53 31.93 27.15 24.47 25.29 24.13 27.94 25.49 24.60 25.01 26.09 28.56 24.40 27.84 27.70 30.37 30.66 30.91 29.98 29.70 27.98 27.57 26.91 26.95 26.69 24.17 21.87 21.40 21.13 22.05 21.58 20.15 17.97 15.52 13.68 10.21 10.33 13.04 14.74 12.00 9.71 8.57 9.81 8.60 10.03 10.88 11.21 11.52
34.25 26.32 22.66 25.66 21.44 15.34 26.64 25.69 28.27 26.25 20.06 22.52 18.07 19.34 21.25 23.33 25.05 22.59 22.27 24.55 28.34 29.38 29.16 29.75 28.51 26.41 26.01 24.11 22.02 21.90 23.85 23.42 21.64 19.53 20.24 21.46 18.76 17.88 16.83 14.15 11.80 9.93 9.30 10.07 8.70 5.15 5.48 1.32 3.72 6.56 6.03 6.56 7.14 7.74
17.97 17.78 21.30 19.18 23.88 12.38 20.48 20.44 22.49 23.95 21.38 9.19 21.14 12.11 21.08 20.05 20.67 19.80 20.77 20.36 24.72 25.09 26.12 28.31 27.84 26.41 21.91 21.06 20.98 20.31 21.06 23.32 19.87 15.71 15.08 15.45 11.89 12.08 11.74 12.11 9.83 10.11 8.47 1.72 1.29 1.30 1.41 1.28 1.94 1.20 3.73 3.99 5.46 7.73
19.11 20.53 22.55 21.58 21.43 21.42 10.42 10.81 15.18 20.00 17.07 14.25 15.43 17.80 14.23 13.18 11.47 14.43 19.37 19.96 23.72 22.84 23.58 23.94 22.77 20.82 20.00 21.24 18.83 17.58 16.79 18.10 18.06 12.88 12.34 12.50 9.63 4.20 2.27 -0.81 -0.32 0.92 5.08 -4.75 -4.56 -4.75 -1.17 -0.23 -0.71 -1.54 1.53 3.91 4.31 1.87
13.16 11.66 20.91 26.70 25.43 22.90 18.93 19.07 20.67 21.80 21.01 18.30 18.71 20.25 20.28 17.55 16.45 18.66 22.18 20.98 21.42 20.43 21.86 22.86 23.20 20.13 17.66 15.67 14.97 13.58 13.67 13.83 13.09 12.34 12.51 11.20 10.12 8.20 -0.36 -6.01 -4.56 1.78 2.28 -1.34 -9.46 -10.00 -5.83 -2.04 -1.03 -0.01 2.63 1.46 -4.02 -0.58
22.15 23.62 13.84 15.86 20.29 22.94 21.28 14.34 14.92 21.21 22.85 24.11 22.51 18.77 17.54 14.80 12.42 17.19 19.18 21.60 19.95 18.73 17.05 15.58 15.75 14.47 11.86 10.44 10.10 10.08 11.77 11.79 11.02 10.08 7.70 5.21 3.77 -3.48 -5.30 -7.65 -6.42 3.96 -5.49 -11.45 -12.72 -7.83 -8.92 -2.40 0.72 1.76 1.18 -2.03 -7.65 -10.00
19.28 21.25 22.32 16.18 16.50 20.28 19.06 18.00 18.39 22.77 25.41 23.83 18.16 14.91 13.74 13.40 12.31 11.59 15.89 18.07 17.57 15.48 12.32 10.93 10.14 10.48 9.86 8.52 5.94 3.20 1.83 -1.86 -3.82 -6.09 -9.28 -12.00 -11.45 -4.89 -8.01 -12.90 -12.90 -10.92 -13.45 -13.63 -1.85 3.84 4.47 3.68 -0.94 -8.92 -11.27 -9.28 -6.56 -8.37
20.13 18.06 13.86 8.25 12.27 14.27 21.09 19.62 20.98 20.76 21.36 19.94 18.36 16.34 12.71 9.32 11.95 14.19 14.05 13.08 10.34 7.63 6.63 5.19 5.39 5.23 -1.68 -2.44 -6.01 -3.85 -8.37 -12.90 -10.58 -7.19 -10.91 -12.90 -7.31 -5.89 -16.17 -14.35 -12.18 -10.00 -12.54 -16.89 -14.54 -11.19 -4.38 -11.45 -9.47 -13.49 -14.09 -14.42 -16.36 -18.16
25.03 23.84 22.06 16.17 15.85 22.48 17.21 26.36 26.65 26.59 24.36 17.08 14.12 7.47 5.43 5.60 7.37 9.46 7.29 5.56 5.19 3.74 1.43 -6.56 -7.28 -14.90 -9.64 -11.27 -12.90 -11.82 -8.56 -10.22 -13.81 -10.00 -9.28 -10.37 -11.82 -16.35 -15.99 -13.45 -15.26 -19.07 -22.33 -22.15 -22.33 -21.06 -18.52 -19.61 -22.15 -22.33 -20.88 -18.52 -18.89 -20.70
20.25 12.81 8.49 11.73 13.10 13.05 11.12 10.48 12.11 12.98 16.99 17.46 6.04 4.83 -2.44 -0.60 -4.56 2.34 2.58 -0.24 -2.16 -5.38 -9.82 -16.35 -10.91 -7.10 -9.64 -12.00 -15.62 -15.99 -8.73 -12.72 -13.45 -13.27 -12.36 -10.91 -11.63 -14.17 -16.17 -16.35 -21.06 -22.88 -21.79 -21.61 -22.33 -21.97 -21.79 -21.79 -22.51 -22.88 -23.24 -22.88 -22.15 -21.24
5.60 4.48 10.72 9.74 12.97 13.73 2.66 0.20 -1.65 1.60 10.89 9.30 0.26 -1.70 -3.48 -0.39 -0.89 1.22 3.24 -2.29 -3.22 -6.71 -9.13 -10.91 -11.63 -12.54 -12.90 -13.28 -12.39 -13.81 -9.29 -13.81 -14.35 -5.11 -3.11 -3.11 -8.92 -10.37 -15.99 -20.16 -22.51 -22.69 -21.06 -22.15 -23.60 -25.05 -21.61 -21.42 -21.97 -23.24 -23.78 -24.51 -24.51 -24.14

GFSWCAN_sfc_wetblb_015.txt.gz
Wetbulb
49.44 48.99 48.87 48.71 48.74 49.03 49.31 49.33 49.41 49.27 49.06 49.04 49.17 49.15 49.44 49.86 50.99 53.63 52.32 53.45 50.44 46.19 48.00 50.17 48.10 44.42 44.13 44.48 40.99 43.31 42.67 41.63 36.38 34.55 34.39 32.65 33.46 33.99 33.33 34.71 33.31 32.98 30.93 29.29 24.84 26.00 28.26 38.58 41.41 38.05 42.55 42.36 42.35 43.01
48.49 48.33 48.33 48.42 48.63 48.56 48.74 48.62 48.66 48.42 47.17 47.12 48.40 48.98 49.72 50.08 50.85 52.81 52.76 53.71 52.67 49.10 48.49 51.03 51.56 51.50 51.20 48.37 45.27 43.39 44.87 42.02 41.53 36.15 32.90 32.44 32.65 32.31 30.35 33.38 36.39 33.35 35.72 34.50 33.10 34.36 39.90 40.67 42.78 43.59 43.03 42.72 43.61 43.47
48.15 48.17 48.24 48.29 48.15 48.28 48.57 48.25 46.70 46.77 47.03 47.51 48.50 49.70 50.41 50.83 51.57 53.18 53.50 51.78 49.33 45.82 47.44 48.75 48.61 51.81 52.52 51.50 51.39 44.71 41.85 45.02 41.48 41.06 35.69 34.27 33.83 34.01 32.38 32.68 34.34 37.09 37.52 35.56 35.96 39.62 38.02 40.29 42.79 43.10 44.12 44.74 44.84 45.22
48.01 48.04 48.08 48.05 47.85 46.97 46.00 46.63 47.46 47.01 47.48 48.32 49.07 49.61 50.28 51.26 51.67 52.75 51.57 50.37 47.74 43.06 37.25 44.08 49.81 49.01 51.51 52.37 51.74 49.60 45.80 43.52 41.94 40.35 35.73 34.06 34.48 35.92 32.48 35.77 35.26 37.95 38.14 36.59 35.90 39.12 40.39 41.96 43.06 45.38 45.38 44.73 44.87 45.56
47.69 47.65 47.64 47.13 46.25 45.96 46.48 46.75 47.44 47.46 48.31 49.18 50.30 50.24 51.01 51.27 51.52 52.64 51.29 50.87 49.56 47.80 39.25 40.25 46.94 47.73 49.79 49.81 47.92 47.78 46.24 44.56 41.62 38.18 34.85 36.31 34.37 35.71 34.74 35.04 34.51 39.14 38.79 37.41 37.44 42.46 42.28 42.67 43.80 44.94 44.69 45.09 45.85 44.97
47.57 47.39 46.36 46.37 46.19 46.09 46.34 46.83 47.69 47.75 47.96 49.05 49.43 51.03 50.95 50.38 50.19 50.15 47.32 49.71 49.20 47.47 43.41 38.15 43.32 44.23 46.76 48.11 47.62 47.24 46.86 44.39 43.49 41.19 36.42 36.95 39.36 38.54 34.34 34.60 40.12 40.75 42.37 42.63 42.24 42.85 42.65 43.63 43.55 45.71 45.25 45.40 45.07 43.69
47.42 47.39 46.79 45.65 45.62 45.98 46.34 46.97 47.95 48.27 48.30 48.46 49.68 50.41 50.56 49.32 50.66 45.50 44.27 47.54 47.26 46.85 41.39 37.41 37.78 42.02 43.08 45.61 44.62 45.27 47.19 43.83 43.82 39.63 36.22 35.73 38.30 38.59 34.79 34.16 40.68 42.03 43.09 43.78 44.20 43.93 43.12 43.66 43.54 42.54 39.61 36.44 36.47 35.91
46.92 47.22 47.12 46.95 45.65 45.67 46.07 46.83 47.78 48.45 47.87 48.42 48.78 48.94 48.87 49.16 48.89 48.62 48.87 47.57 47.15 42.82 40.54 35.21 34.84 37.56 43.51 39.58 38.59 42.90 40.25 42.93 42.28 39.61 37.77 36.76 38.18 37.98 35.83 38.58 38.08 39.31 40.44 43.23 42.68 44.32 42.63 37.39 36.47 35.47 36.14 36.15 35.11 35.11
45.89 46.21 46.27 46.63 46.30 45.54 46.05 47.04 48.00 47.81 47.28 47.38 47.70 48.17 48.78 47.67 46.23 47.67 47.37 46.85 47.20 44.45 36.19 32.97 34.50 34.61 42.39 38.64 37.50 39.61 40.82 36.35 39.94 37.80 37.22 40.02 34.34 32.99 32.07 33.17 33.94 34.99 36.20 38.38 37.52 35.39 35.36 34.22 34.41 35.05 35.61 35.61 34.00 33.94
45.73 45.87 46.09 46.10 45.92 45.74 46.27 47.46 47.64 47.56 47.27 47.13 46.72 43.27 39.56 45.01 47.10 46.91 44.63 40.84 39.80 39.04 40.54 33.99 37.77 35.01 41.68 35.26 34.90 35.95 36.71 35.26 34.70 37.08 39.18 34.90 34.53 32.28 33.39 34.29 34.67 34.93 35.73 39.17 34.80 32.41 33.95 34.11 34.60 35.57 35.42 35.54 35.72 36.50
45.98 46.03 46.28 46.46 46.66 46.79 46.67 46.47 46.62 47.55 47.76 44.82 41.52 40.14 45.37 45.78 44.41 38.45 34.93 35.11 36.88 34.03 37.66 36.27 36.10 35.90 39.85 37.52 35.44 35.44 34.71 33.81 33.05 35.05 35.51 33.76 31.23 30.30 34.14 34.56 35.93 36.48 36.79 36.67 37.09 36.88 36.73 36.16 34.52 34.79 35.02 35.20 34.71 34.35
45.62 45.37 45.43 45.75 45.88 45.88 46.00 46.18 46.30 45.39 43.49 43.80 44.25 44.04 42.16 39.58 35.99 34.71 33.32 34.53 33.29 33.17 34.49 35.24 35.79 39.02 36.51 39.80 37.07 35.38 33.81 33.26 31.72 36.02 33.08 30.34 28.98 33.30 34.64 35.66 36.15 36.59 36.81 36.51 37.15 36.58 36.92 36.47 36.97 35.57 33.80 32.61 31.08 30.29
44.58 44.65 44.76 44.91 45.01 45.57 45.49 45.15 45.43 45.18 44.27 42.48 39.39 36.07 38.35 34.95 32.07 28.21 31.20 32.54 32.10 33.08 33.96 33.79 33.97 34.71 36.70 36.20 34.17 34.35 32.90 32.12 34.00 31.97 30.31 30.12 34.08 35.22 35.40 36.12 35.52 35.62 35.60 35.19 35.34 35.17 33.95 32.23 31.18 30.71 30.81 30.15 29.80 30.51
43.82 44.02 44.07 44.25 44.55 44.33 44.34 44.34 44.39 43.46 41.06 34.50 34.00 31.97 30.22 32.31 31.21 31.56 32.36 32.54 32.36 32.54 32.90 33.81 33.08 34.17 33.08 33.63 32.72 32.72 31.57 31.71 29.78 27.98 27.51 31.17 33.35 33.37 34.61 35.08 33.99 32.15 28.98 30.48 30.80 30.66 29.15 28.85 28.71 27.88 27.15 27.39 26.86 29.15
43.87 43.42 43.34 43.23 44.00 44.08 43.23 43.03 43.08 41.96 37.25 32.91 33.21 27.73 28.63 30.70 31.91 31.77 32.18 32.72 32.89 34.06 33.81 33.63 33.45 34.86 32.36 31.94 31.70 30.80 27.46 26.14 26.82 24.98 30.22 31.62 32.60 32.11 32.45 33.46 31.72 30.55 28.16 31.26 31.86 30.42 28.26 26.97 25.98 28.75 27.80 27.92 28.42 27.84
43.32 42.27 40.80 43.01 43.44 43.07 42.26 41.21 38.92 38.00 34.60 32.50 31.80 30.19 31.39 31.48 31.26 32.18 32.18 32.00 34.98 33.05 33.42 33.73 31.74 31.57 29.55 31.13 29.07 28.13 25.46 21.99 27.21 31.27 31.85 32.24 31.08 32.66 33.66 34.45 33.80 33.22 32.72 32.22 31.73 30.45 29.37 27.86 27.44 28.56 28.50 28.86 27.19 27.43
41.30 36.62 41.33 42.77 42.44 41.70 41.05 35.91 33.40 32.29 32.15 31.01 30.62 32.00 32.00 32.18 31.62 31.81 32.36 32.34 35.12 33.25 31.63 31.72 29.71 27.24 30.14 26.95 25.72 28.86 25.15 28.75 31.70 31.67 33.01 33.67 32.65 32.93 34.12 34.65 32.90 32.63 31.99 31.24 30.41 29.83 28.66 27.17 26.01 27.44 26.57 27.73 27.41 28.10
35.91 37.58 41.60 42.05 39.88 38.10 35.12 32.55 29.90 32.01 29.94 30.40 29.56 30.29 32.15 31.97 32.00 32.18 32.54 33.02 33.25 32.45 32.05 29.28 30.81 26.52 23.81 20.29 24.45 29.86 30.62 31.97 32.81 33.44 33.55 34.11 34.55 34.14 34.40 32.91 31.52 31.38 30.07 28.57 28.28 28.19 27.29 26.29 25.43 24.71 24.92 25.16 25.57 26.44
38.76 39.32 40.73 40.91 38.03 32.34 30.58 30.91 30.94 28.24 29.15 30.62 30.41 30.57 31.15 31.00 31.38 31.86 32.34 32.87 31.58 29.50 30.71 26.28 22.43 24.18 25.19 26.80 30.47 30.61 31.23 31.62 31.34 32.39 32.87 32.16 32.09 31.49 30.94 30.69 30.27 29.33 27.67 26.81 26.39 25.63 25.43 24.89 23.90 23.34 21.85 21.69 21.31 23.76
40.28 40.39 39.72 39.76 38.04 30.32 28.19 27.59 32.55 30.46 28.15 29.64 30.27 29.24 29.23 29.59 30.38 31.64 32.18 32.51 32.34 27.91 25.23 23.47 24.10 25.37 26.08 27.13 27.74 31.63 34.60 33.41 29.88 28.34 28.02 28.44 29.92 28.85 27.97 27.49 26.82 26.83 25.55 24.84 24.27 22.47 21.38 22.28 21.17 19.24 17.69 17.47 16.93 17.45
36.38 36.63 36.85 34.45 30.94 31.21 30.56 29.14 28.53 30.42 30.32 29.40 29.13 28.86 28.21 30.04 29.32 29.43 30.34 30.92 31.03 29.50 27.96 26.15 28.15 29.59 30.45 29.43 29.27 31.17 31.11 30.09 28.37 29.22 28.97 27.15 26.48 25.19 23.68 23.37 23.50 22.26 20.66 20.04 19.08 15.64 15.05 15.67 15.94 15.69 14.75 14.22 14.86 17.35
33.11 36.45 29.45 31.41 26.49 27.43 27.88 30.25 29.92 28.46 29.63 27.99 27.38 28.49 27.04 26.65 27.24 27.53 29.19 28.95 28.74 28.27 29.78 28.77 30.34 31.86 30.43 28.41 28.13 27.99 28.61 28.61 28.25 27.34 26.87 26.31 24.30 21.91 18.50 17.72 17.84 16.61 16.16 15.52 15.12 12.24 11.82 13.08 12.68 12.23 11.68 12.11 12.66 13.92
34.34 30.02 25.11 22.55 20.27 20.41 21.96 29.00 25.54 25.43 20.75 19.17 26.76 22.63 23.96 24.52 24.83 28.27 25.81 27.79 28.12 30.52 31.00 30.67 28.58 28.93 26.80 27.02 26.30 25.60 25.51 24.63 22.87 22.47 22.08 21.30 19.27 16.95 15.48 14.23 13.27 11.85 11.82 11.71 12.66 11.82 10.07 6.35 8.94 8.26 9.33 9.64 10.12 10.46
32.55 27.34 16.22 14.14 15.84 13.13 24.47 24.52 27.61 25.90 25.02 18.88 18.29 14.56 16.44 16.67 21.33 19.90 19.46 24.76 27.63 28.86 29.07 29.07 27.39 24.88 24.52 23.12 21.65 22.66 24.13 22.75 19.91 18.35 21.13 19.85 17.08 15.73 15.11 12.86 11.35 10.05 9.09 9.19 8.24 6.24 6.19 5.46 2.93 5.77 5.61 5.99 7.15 8.44
18.44 22.05 16.42 10.03 17.72 14.24 19.51 19.76 22.09 23.50 21.45 19.23 16.97 11.70 23.04 20.69 16.57 12.66 15.81 20.98 22.88 22.73 24.74 26.91 26.25 24.13 20.67 20.14 20.24 19.92 21.19 22.46 18.41 14.61 14.91 15.56 14.22 13.46 12.33 11.36 10.08 9.31 8.25 5.42 3.83 3.11 3.14 3.20 3.18 3.09 3.88 4.24 6.22 5.92
11.83 23.95 22.02 21.63 21.62 21.12 12.53 14.23 16.17 20.00 20.23 11.96 14.81 17.02 18.73 19.72 15.01 14.38 16.79 18.32 20.66 19.76 20.36 22.75 21.22 19.14 17.74 19.27 17.71 16.79 16.24 18.70 16.67 12.27 11.48 11.89 10.19 7.79 6.40 4.73 4.66 5.76 6.81 2.81 1.13 0.95 1.35 1.55 1.25 1.07 3.14 5.03 3.70 3.00
14.35 20.24 23.41 26.90 25.58 23.46 13.82 12.71 19.41 20.50 14.13 16.20 19.04 17.50 16.45 16.62 10.18 15.57 20.49 19.23 18.64 17.57 17.78 18.46 19.88 18.07 16.35 15.50 14.93 14.60 14.19 14.43 13.88 12.13 11.91 10.67 9.52 8.02 5.27 3.06 1.89 4.80 4.54 2.31 -0.82 -2.09 -1.72 -1.00 -0.20 1.96 3.40 5.38 3.37 0.99
24.27 24.47 17.98 22.90 15.23 19.48 14.63 13.60 14.70 15.87 20.44 23.90 21.39 13.19 13.84 14.88 14.21 14.63 16.63 19.61 18.38 16.81 15.16 14.46 14.18 13.73 12.18 11.29 11.99 13.02 11.92 11.09 10.02 9.62 8.78 7.17 5.64 3.48 1.61 1.34 -0.21 2.08 -2.31 -2.95 -1.97 -1.36 -0.17 0.40 2.03 3.46 1.55 0.80 0.52 0.52
17.50 18.76 16.27 11.56 12.89 15.17 15.10 14.75 14.42 19.75 23.28 20.11 14.62 11.86 11.55 12.04 11.37 11.16 14.45 16.23 16.41 15.09 12.23 10.95 10.13 10.80 9.06 7.46 4.88 3.18 3.00 5.60 4.96 -0.11 -1.44 0.18 -0.54 3.36 2.07 -0.75 -1.98 -1.95 -3.38 -4.85 -0.52 2.95 5.21 6.81 4.40 0.80 -1.66 -2.21 -2.63 -2.99
14.43 19.56 12.31 7.16 14.80 14.66 22.21 21.64 23.02 19.10 19.78 17.64 16.70 14.49 11.48 9.07 10.86 12.68 12.36 11.81 10.02 7.74 6.11 4.67 4.33 6.67 1.77 2.30 0.61 2.00 -0.86 -2.63 -0.24 1.75 0.37 -0.82 0.32 1.90 -1.72 -2.27 -2.99 -2.81 -6.26 -6.18 -5.58 -3.88 -1.75 -3.13 -1.68 -4.22 -5.72 -5.72 -6.39 -6.22
18.12 19.57 20.05 15.32 13.69 21.05 17.76 20.17 24.85 25.02 15.24 12.52 11.48 6.65 6.08 6.54 7.93 8.29 6.35 4.30 4.32 4.29 4.57 -0.13 -0.67 -6.44 -0.56 -2.09 -1.54 -2.31 -0.17 -0.72 -8.43 -4.99 -3.54 -2.81 -1.46 -1.36 -2.27 -3.17 -4.62 -7.34 -7.71 -7.22 -7.49 -7.35 -7.52 -6.27 -7.91 -8.53 -7.58 -8.47 -10.08 -10.78
12.36 6.07 7.88 11.58 12.63 10.68 7.93 6.42 11.87 11.66 18.04 14.92 5.88 4.58 2.25 3.59 -2.63 5.70 4.90 2.87 3.25 2.92 -3.90 -7.34 -4.62 -1.00 -4.81 -5.71 -7.89 -7.16 -8.44 -4.63 -3.72 -4.81 -6.07 -3.90 -1.72 -1.36 -3.17 -4.44 -8.07 -8.79 -7.16 -7.17 -8.33 -8.85 -9.88 -8.98 -8.47 -9.22 -9.89 -10.48 -11.39 -11.94
6.91 6.22 12.98 12.31 14.86 16.11 5.59 0.76 -1.53 3.53 12.11 9.84 1.95 -1.79 -0.40 0.96 -0.43 3.29 4.40 -0.16 1.61 1.01 0.71 -2.89 -3.02 -4.26 -6.44 -8.28 -4.77 -4.02 -7.46 -4.49 -7.71 -5.35 -3.54 -2.45 -5.89 -2.81 -3.54 -5.54 -8.07 -8.79 -8.43 -7.89 -8.43 -10.43 -9.03 -9.89 -8.78 -10.36 -11.21 -13.33 -13.45 -13.86

GFSWCAN_sfc_wetblb_018.txt.gz
Wetbulb
46.72 46.30 45.68 47.81 48.75 48.64 48.61 48.45 48.45 48.72 49.05 49.12 49.14 49.32 49.49 49.90 51.12 57.56 58.43 59.01 58.61 54.01 52.01 53.65 52.70 50.81 50.21 52.48 49.33 48.62 48.08 47.61 46.36 45.02 45.44 43.01 41.98 41.02 39.94 40.93 39.17 39.16 38.06 36.84 34.64 35.07 33.31 43.72 45.16 41.39 46.70 48.90 47.97 48.61
45.81 47.44 48.24 48.16 47.94 48.39 48.75 48.93 48.89 48.80 48.62 48.80 48.89 48.98 49.29 49.98 50.98 54.60 57.77 57.50 59.17 56.31 53.60 55.95 55.21 55.13 55.02 55.24 53.19 50.95 51.66 49.57 51.00 47.51 44.62 43.75 38.61 36.17 40.52 39.68 41.98 38.70 42.89 42.42 40.84 42.45 44.76 46.41 48.18 49.56 48.54 48.03 48.82 49.12
48.12 48.23 48.19 48.17 48.37 48.41 48.41 48.07 48.05 47.86 47.80 48.23 48.61 49.07 49.66 49.93 51.32 54.91 57.67 57.79 58.33 55.29 53.41 54.82 53.04 55.54 56.76 55.98 56.94 51.58 51.31 51.88 49.63 50.19 47.76 46.25 38.16 43.64 37.49 41.52 41.59 43.02 43.53 42.24 40.56 44.78 45.27 46.29 47.89 48.58 48.88 49.01 49.87 50.39
47.83 47.74 47.74 47.60 47.28 47.26 46.92 46.68 46.66 47.06 47.48 48.07 48.41 49.04 49.46 50.12 51.20 54.51 58.02 56.34 57.35 54.01 43.42 50.99 54.78 53.09 55.13 56.53 55.65 54.98 53.36 50.89 49.55 51.37 48.21 41.55 42.43 44.26 43.12 43.47 43.44 44.63 43.69 42.55 42.01 45.17 46.37 47.45 48.37 48.86 49.16 50.37 50.46 50.95
47.19 46.52 46.52 46.54 46.74 46.93 46.72 46.61 46.99 47.51 48.32 48.65 49.13 49.49 49.70 50.93 51.65 55.56 55.94 54.61 56.07 54.59 46.90 50.30 52.41 52.44 54.18 53.98 53.03 53.54 52.84 51.80 50.94 47.98 42.33 45.81 44.49 44.03 42.67 43.10 42.46 44.38 44.15 42.48 42.45 47.07 46.54 47.22 48.70 49.53 48.80 49.21 49.78 49.41
46.47 46.14 46.14 46.09 46.31 46.75 47.42 46.86 47.49 48.27 49.25 49.01 49.60 50.77 50.73 51.12 52.74 58.45 51.54 55.51 53.70 55.56 53.61 47.46 50.18 49.84 52.20 53.33 52.96 52.12 52.05 51.56 52.10 50.76 45.50 45.26 43.64 46.30 39.61 42.30 44.69 45.59 47.07 47.03 44.98 47.66 47.98 48.89 49.25 48.63 47.80 45.31 44.89 44.98
45.67 45.78 45.95 46.31 46.70 47.37 47.49 47.75 48.11 48.76 50.25 49.59 49.95 49.62 48.89 50.32 56.62 53.49 51.68 52.39 49.31 53.50 51.59 44.61 46.12 48.65 49.18 50.72 48.88 50.82 52.28 50.56 52.21 47.46 42.16 43.70 45.38 46.70 39.87 42.26 42.35 42.95 44.00 46.13 47.37 48.25 47.12 43.62 42.66 42.81 42.01 41.79 41.29 40.82
46.68 46.03 45.76 46.10 46.81 47.48 47.21 47.28 47.78 48.64 49.46 49.25 49.32 49.73 49.64 49.05 50.82 54.13 52.60 49.65 49.16 51.60 52.62 44.70 42.43 45.66 48.97 45.16 44.04 46.72 46.00 50.00 46.26 42.43 41.87 41.56 42.13 44.25 41.17 40.04 40.43 40.96 42.48 45.67 42.31 45.62 43.21 42.48 41.61 41.04 41.98 40.71 38.26 36.90
46.38 46.05 45.69 45.69 46.61 47.01 46.88 46.88 47.15 47.20 48.10 48.85 48.87 49.57 53.61 52.09 53.27 53.35 47.42 47.82 53.61 52.64 47.21 45.44 42.51 40.15 45.67 41.47 42.76 44.88 47.02 41.39 44.27 42.59 42.29 43.91 38.31 38.09 34.89 35.65 37.61 38.56 39.10 40.13 40.51 41.09 40.88 39.58 38.71 37.85 36.99 36.14 34.92 35.02
45.89 45.71 45.72 45.98 46.48 46.07 46.18 46.38 46.92 47.33 47.53 47.92 52.66 51.69 48.18 49.67 46.72 48.59 50.74 50.10 48.87 47.66 45.60 37.07 42.29 39.02 44.44 40.88 39.43 42.64 43.26 39.91 37.32 40.72 41.71 39.97 35.10 34.62 35.32 35.61 36.72 38.67 40.57 41.69 38.32 35.41 36.86 35.01 35.62 35.67 35.75 36.34 36.43 36.73
46.16 46.21 46.10 45.98 46.07 46.06 46.22 46.22 46.63 48.51 50.15 51.72 48.43 45.81 50.79 47.12 50.50 45.99 41.90 42.40 43.56 40.20 41.62 39.53 40.64 39.40 43.85 41.53 39.18 40.84 38.52 38.98 35.62 38.94 38.89 36.89 33.02 32.75 35.01 35.69 37.97 39.55 40.28 40.31 39.50 38.25 37.56 37.20 36.57 36.58 36.77 38.61 38.15 36.32
45.56 45.35 45.52 45.51 45.49 45.59 45.64 45.94 47.13 49.21 48.33 48.73 49.16 48.27 48.64 45.69 44.26 38.02 36.66 39.12 39.43 36.85 38.08 39.49 39.31 41.29 40.56 43.56 41.42 39.25 37.07 36.50 33.73 39.82 35.94 33.53 32.48 34.46 35.45 35.67 37.05 38.47 38.94 38.77 39.15 38.28 38.56 38.32 38.25 36.20 33.88 33.56 32.88 32.76
44.37 44.51 44.68 44.59 44.58 44.85 44.85 45.15 45.38 45.56 45.79 49.41 45.91 39.48 42.64 38.23 35.08 35.62 32.16 35.05 33.93 35.80 35.77 35.76 35.42 39.74 41.01 42.88 37.96 38.50 35.08 34.71 38.88 33.82 33.11 33.94 33.58 35.15 35.61 36.04 37.19 38.66 38.42 37.84 36.92 36.45 35.64 34.85 34.36 33.83 33.48 32.87 33.45 34.17
43.73 43.72 43.72 43.98 44.39 43.85 43.68 43.88 44.46 45.70 46.46 40.55 37.76 33.63 35.08 33.81 33.63 33.63 34.35 34.17 33.45 33.99 35.98 38.34 35.98 39.95 36.89 36.89 36.71 35.62 32.54 33.97 31.63 30.72 31.14 32.07 33.88 34.36 36.14 36.73 36.50 34.71 33.06 34.18 34.87 34.19 33.88 32.53 32.54 32.54 32.18 32.18 32.18 32.16
43.20 42.84 42.95 42.93 43.51 43.65 43.14 42.92 43.42 45.87 41.63 36.04 37.60 30.35 31.09 32.16 33.08 32.36 32.90 33.99 34.53 35.55 36.16 37.61 37.24 40.00 35.26 33.99 33.81 33.08 31.45 30.62 32.15 31.76 32.33 33.31 33.85 34.51 35.61 36.07 34.34 33.65 33.67 34.54 35.76 33.69 32.60 32.88 32.90 32.58 32.51 32.14 31.56 31.37
42.70 42.70 41.06 42.69 42.95 42.38 42.55 42.95 41.14 41.68 37.26 35.15 34.23 32.34 32.54 32.54 32.18 32.36 32.54 32.54 35.80 35.44 36.35 35.98 33.08 32.72 32.36 34.53 32.54 32.71 31.43 30.23 32.09 34.32 33.04 33.38 33.73 34.70 35.40 35.66 36.30 36.02 35.36 34.97 34.36 33.65 32.73 31.52 31.07 31.18 31.30 29.09 28.59 29.34
41.88 39.28 40.72 42.26 42.07 41.71 41.79 41.37 40.49 35.71 34.20 33.43 32.00 32.54 32.90 32.54 31.81 32.00 32.36 32.90 35.58 34.17 32.00 33.99 32.36 30.68 34.24 32.00 30.62 34.11 32.04 33.96 33.26 33.96 34.75 35.12 35.23 35.28 35.90 36.24 35.98 34.96 34.45 34.00 33.16 32.14 31.01 30.40 29.41 28.36 26.94 27.30 27.59 28.46
39.01 40.94 41.07 41.47 42.01 42.11 40.03 39.17 37.56 35.06 30.64 32.24 31.72 31.63 33.26 32.72 32.54 32.72 34.17 35.90 37.41 35.98 35.75 32.30 34.03 31.30 31.02 29.44 31.44 33.98 33.49 33.45 34.41 35.26 34.35 35.46 36.07 36.30 36.90 36.63 35.26 34.51 32.79 30.73 29.37 28.79 28.17 27.86 27.64 27.07 25.80 25.59 26.14 26.64
39.94 40.26 40.31 40.51 41.35 40.43 36.26 35.68 37.48 30.73 31.01 32.83 33.23 33.55 33.78 32.72 34.11 34.84 34.35 34.75 36.06 38.14 36.73 34.88 32.21 31.89 32.94 35.20 32.46 32.31 33.81 34.60 33.81 33.32 32.87 33.69 34.86 35.33 34.31 33.79 32.68 30.41 29.40 29.20 29.09 28.41 28.34 25.95 24.91 24.83 24.14 24.10 23.43 24.43
39.61 39.91 39.30 39.44 41.65 38.42 33.51 34.17 39.11 32.68 29.71 31.42 33.35 31.66 32.17 32.50 33.32 33.25 33.99 34.73 36.71 37.29 34.05 32.57 31.77 32.77 33.45 32.45 33.26 34.28 34.90 35.09 33.77 31.20 30.52 31.16 32.65 33.04 32.54 31.62 29.51 29.31 29.06 27.85 25.01 24.13 25.68 25.20 23.78 22.58 21.34 20.89 20.95 20.67
40.03 39.60 38.83 40.87 38.34 36.45 32.46 32.88 32.18 32.76 32.74 30.87 31.87 32.64 32.72 34.54 33.58 32.72 32.89 35.19 35.77 33.56 31.94 31.06 31.58 32.21 31.80 31.62 32.60 33.57 33.70 35.41 36.45 36.35 33.64 28.86 29.22 29.72 28.25 27.73 27.12 27.11 26.08 24.98 23.28 21.54 20.69 20.72 20.27 20.10 19.88 20.09 19.25 20.69
37.93 37.35 37.33 36.32 33.86 33.74 32.92 33.88 32.18 34.12 33.22 32.32 33.41 34.12 32.28 31.39 31.77 32.07 33.65 33.28 31.41 30.88 32.49 32.13 32.20 33.01 32.07 29.16 29.49 30.98 31.42 31.53 31.13 30.34 29.15 28.51 26.15 24.90 23.79 24.27 24.67 22.41 21.30 20.70 20.63 19.19 19.03 18.12 16.89 17.51 18.18 17.59 18.24 19.38
36.94 36.37 33.71 33.00 29.07 29.46 27.80 34.76 30.43 29.76 27.73 29.27 31.61 28.88 29.51 30.54 30.64 33.39 29.98 30.93 30.72 30.68 32.25 32.06 29.57 30.20 28.53 28.53 27.95 27.50 28.27 28.00 26.29 25.04 24.28 22.76 21.86 21.68 20.35 19.35 19.70 19.33 18.65 17.15 17.63 17.39 16.48 12.29 14.93 14.65 16.30 16.56 17.24 17.33
35.49 29.79 25.87 26.99 27.63 24.20 29.57 26.38 28.40 27.02 29.11 27.55 26.62 24.34 26.23 28.24 29.95 29.26 25.63 25.77 25.86 27.91 28.34 29.65 29.25 27.60 26.85 25.50 23.32 24.04 24.84 24.94 22.79 22.55 23.69 22.30 19.65 18.44 18.53 16.98 15.89 14.65 13.76 14.40 14.67 14.54 14.49 13.72 11.30 14.21 13.72 13.89 14.10 13.81
26.97 25.13 26.67 22.36 27.00 23.60 22.54 22.74 24.27 25.93 23.09 24.21 23.89 24.87 25.55 28.07 25.73 23.06 21.83 21.95 24.45 24.00 25.17 26.62 26.63 25.75 23.45 22.51 22.05 21.06 22.41 23.20 20.36 17.33 17.86 19.68 18.61 17.81 16.34 15.40 14.31 12.73 13.14 12.52 11.96 11.81 12.10 11.59 11.77 11.51 11.34 12.28 10.76 10.48
21.96 25.54 24.09 23.69 24.09 23.78 23.24 21.65 21.55 23.28 23.87 22.76 24.11 25.90 27.79 26.19 20.51 17.39 19.69 21.13 22.58 21.23 21.11 23.28 24.20 22.01 19.54 20.32 19.40 18.53 18.29 20.85 19.28 15.33 14.52 15.58 15.39 15.02 13.64 12.89 13.56 13.21 12.74 11.54 9.79 9.18 9.42 9.46 9.33 8.53 10.04 10.88 9.63 8.67
20.98 22.44 26.40 28.65 26.72 26.10 25.71 25.71 26.63 25.78 22.62 21.98 25.30 24.55 24.80 18.41 16.50 18.78 21.95 20.70 21.00 20.27 20.43 20.42 21.54 20.61 18.97 17.12 16.35 16.27 16.75 17.22 16.98 15.10 14.81 13.82 13.08 13.00 12.11 10.12 8.45 9.88 10.75 9.41 8.53 8.22 7.15 6.89 7.60 8.53 9.38 10.56 10.17 8.32
25.30 26.79 21.94 24.41 25.59 27.02 23.30 24.00 23.28 22.36 24.29 26.28 26.12 20.11 18.66 18.82 17.82 18.50 19.27 20.96 20.99 20.26 18.95 18.04 17.29 16.87 16.33 15.96 17.00 17.39 16.18 15.30 14.29 14.20 14.03 13.61 12.97 12.19 10.22 10.84 9.43 6.86 7.02 7.30 6.91 7.29 7.76 7.88 8.43 8.82 8.30 7.01 6.80 7.48
25.74 27.34 26.33 19.65 22.90 24.54 23.80 23.45 23.94 25.85 25.84 26.28 24.29 19.61 16.14 15.50 15.90 17.04 18.35 19.34 21.13 20.76 18.19 16.74 15.56 15.90 14.52 13.59 12.66 12.83 14.47 14.85 13.48 9.67 9.08 10.89 11.23 11.91 10.92 9.87 9.45 8.78 8.22 7.10 6.77 6.75 7.71 8.95 7.79 6.37 5.10 4.95 5.08 5.51
25.02 26.78 24.46 20.34 20.82 20.79 24.81 27.31 27.24 26.49 24.16 22.57 21.01 17.56 15.08 14.53 14.64 16.74 17.54 17.85 16.70 14.48 13.25 13.03 13.36 15.41 12.74 14.23 12.62 11.32 10.86 10.66 9.59 9.32 8.49 7.62 8.38 9.72 9.09 8.68 8.02 7.77 6.33 6.14 5.72 5.90 5.70 5.62 5.89 6.16 4.33 4.05 4.13 2.63
26.97 28.35 24.93 24.26 22.98 25.47 23.97 23.40 27.69 25.15 22.40 19.10 17.43 16.95 13.51 13.39 14.25 13.81 12.99 12.53 13.21 13.94 14.16 12.41 11.08 11.13 11.46 10.10 10.31 9.65 9.69 9.78 5.92 5.66 6.13 7.49 8.39 8.71 8.78 7.50 7.65 6.67 5.66 4.90 4.19 3.81 2.48 3.31 3.94 2.26 2.17 0.47 -0.92 -1.36
22.98 19.24 20.56 19.62 22.52 21.94 20.73 20.95 20.48 23.32 22.13 19.40 14.56 14.28 12.26 13.28 9.78 12.25 11.61 13.46 13.70 11.64 5.25 9.23 11.12 10.03 8.80 9.35 7.45 8.35 0.12 6.83 7.87 6.62 5.41 6.66 8.10 8.73 8.28 7.52 6.16 5.44 4.61 3.52 3.42 2.44 1.38 0.57 1.16 0.57 0.08 -0.72 -2.11 -3.34
20.01 19.76 21.26 20.54 20.35 19.94 17.70 17.20 15.49 16.61 17.32 15.01 11.45 11.33 10.78 11.52 7.19 10.66 11.52 10.87 10.99 10.60 9.82 9.80 10.62 10.59 7.71 5.01 6.83 7.77 3.68 8.10 4.64 4.11 3.46 2.74 1.14 3.20 5.05 6.84 6.14 4.63 2.67 2.49 2.77 1.77 0.21 -0.54 -0.19 -1.10 -1.52 -3.88 -4.26 -4.63

GFSWCAN_sfc_wetblb_024.txt.gz
Wetbulb
43.94 44.05 43.80 44.16 44.64 45.05 45.64 46.14 46.60 47.04 47.25 47.32 47.33 47.44 47.14 47.31 48.28 50.03 50.29 53.72 54.33 51.36 54.25 56.52 55.71 52.19 54.41 54.56 49.66 52.07 50.51 51.64 53.35 46.99 46.57 48.18 44.63 46.47 45.15 45.02 41.45 40.06 40.11 38.16 41.67 35.15 32.82 47.59 46.79 41.89 48.41 50.88 49.79 49.57
43.90 43.97 44.10 44.41 44.98 45.43 45.88 46.20 46.55 46.97 47.28 47.22 47.62 47.44 47.81 49.39 50.03 51.32 48.42 54.43 56.88 56.87 55.50 59.73 58.28 58.88 58.30 57.37 55.54 53.97 53.53 52.15 53.32 50.81 49.73 51.46 40.42 39.55 43.92 40.84 47.60 42.08 46.08 44.79 42.81 42.48 49.33 49.63 48.67 50.33 51.13 49.64 49.90 50.12
44.46 44.55 44.58 44.98 45.46 45.66 46.04 46.39 46.64 47.12 47.18 47.66 48.00 48.41 48.92 49.50 49.86 50.43 50.94 53.59 59.17 57.36 54.91 55.37 54.62 57.75 59.76 60.18 62.06 53.34 55.60 57.03 55.73 59.47 54.94 52.74 40.04 47.95 39.09 44.91 47.36 47.77 49.10 46.26 45.48 46.39 47.36 48.85 49.84 50.29 50.81 50.57 51.01 51.37
45.24 45.41 45.42 45.27 45.18 45.31 45.86 46.36 46.48 46.95 47.86 48.16 48.12 48.52 49.02 49.44 49.96 50.81 50.81 54.46 59.65 56.65 46.29 52.55 58.37 55.84 58.50 59.47 59.97 60.12 60.04 60.19 59.45 57.91 54.40 43.09 43.15 51.33 47.41 49.45 49.23 48.51 47.75 45.05 45.15 47.46 48.49 49.13 50.21 50.77 50.93 51.76 51.10 51.42
44.52 44.34 44.09 45.13 44.43 45.18 45.68 46.55 46.46 47.29 47.92 48.44 48.57 48.93 49.07 49.93 50.55 51.90 53.67 56.74 61.23 56.36 48.55 50.78 55.26 56.15 57.30 58.12 57.84 58.88 59.29 57.66 56.04 51.86 42.96 49.84 51.88 49.81 49.56 49.71 47.79 48.69 46.60 45.42 44.53 48.09 48.01 48.20 48.73 49.82 47.66 46.60 46.88 46.49
44.86 44.87 45.03 45.37 46.73 45.96 46.41 47.25 47.12 47.20 47.74 48.29 48.56 49.02 49.27 50.01 50.36 52.53 51.96 59.05 60.04 61.60 54.17 47.97 53.93 53.83 55.99 57.00 56.29 56.65 57.42 57.38 56.56 53.76 49.82 52.17 51.57 51.60 43.52 44.25 48.20 48.83 49.42 49.09 47.71 49.57 49.84 48.21 47.11 46.55 44.42 44.53 44.42 43.41
46.55 46.56 46.40 46.53 46.67 46.83 46.83 46.85 47.27 47.52 47.77 47.95 48.45 48.88 49.73 49.63 54.72 53.37 50.22 52.38 50.47 60.51 53.85 46.02 45.71 52.20 55.68 55.25 55.06 54.93 56.80 56.21 55.75 53.38 50.22 50.41 49.03 50.46 42.69 43.99 47.34 46.82 47.26 48.75 48.23 48.78 45.68 47.16 43.72 45.64 42.91 42.30 41.27 40.47
46.98 47.45 47.47 46.94 46.71 46.83 46.80 46.75 47.07 47.36 47.57 47.93 48.47 48.77 49.58 49.26 50.66 52.65 53.81 50.65 50.49 55.66 54.49 44.26 39.91 46.75 53.61 51.00 49.01 53.50 53.63 54.13 51.22 48.06 49.66 49.35 47.46 50.54 44.93 45.78 45.69 45.46 46.87 45.79 46.14 47.17 46.20 45.19 43.67 41.76 41.78 41.07 38.80 37.68
46.08 45.92 46.71 47.59 47.43 47.07 47.02 47.16 47.50 47.72 48.00 48.47 48.94 49.22 52.83 55.29 54.23 53.76 48.33 49.04 58.57 52.82 44.65 46.31 40.29 39.56 51.20 46.37 47.81 49.37 52.21 45.06 48.96 44.15 48.97 48.36 41.75 41.57 44.52 44.01 43.81 43.74 44.97 43.93 45.44 44.96 42.99 40.84 40.05 39.84 39.34 38.04 36.83 36.76
45.08 45.04 45.59 46.50 47.75 47.88 47.95 47.72 47.83 48.22 49.16 49.35 53.05 53.40 47.25 51.91 48.68 49.35 52.61 52.13 51.24 49.28 49.71 41.38 46.32 42.25 47.05 43.67 41.19 43.54 45.57 42.57 39.22 42.70 46.16 43.22 40.87 41.86 42.39 43.04 43.62 44.18 45.48 45.17 40.49 37.60 38.02 37.46 37.71 38.22 38.33 38.46 37.12 35.62
44.90 45.03 45.11 45.36 45.67 46.25 47.20 48.57 49.57 49.89 50.05 56.46 51.92 46.71 51.19 49.64 51.99 49.25 44.03 45.16 45.38 41.18 43.65 42.68 44.00 42.84 47.70 43.06 40.07 43.44 40.53 41.38 37.43 40.34 40.88 38.67 37.09 38.45 41.21 41.00 42.48 44.32 44.24 43.65 42.73 40.68 40.43 39.55 38.26 36.98 35.36 34.75 34.32 33.58
44.70 44.43 45.37 45.25 45.59 45.99 46.39 47.50 48.35 52.27 52.85 52.19 51.80 51.93 51.40 49.13 44.76 38.32 38.58 41.26 41.89 38.81 38.73 39.94 41.93 43.60 44.21 48.42 42.06 41.69 36.76 39.53 35.84 41.52 37.19 34.90 37.13 38.47 38.73 38.70 40.57 41.76 41.49 40.68 40.72 38.94 38.80 37.76 36.60 35.26 34.24 33.52 32.31 32.02
43.89 43.91 44.17 44.35 45.02 45.78 45.94 45.90 46.57 47.52 48.38 53.61 47.99 41.57 43.69 39.76 35.58 35.76 32.30 35.38 34.43 36.57 36.80 38.20 36.76 42.53 43.31 44.64 40.46 39.22 35.32 36.62 41.83 35.35 34.47 35.82 36.34 37.33 38.22 39.39 39.11 39.96 39.99 38.86 37.61 37.23 36.17 35.26 34.96 33.00 31.93 31.65 33.46 33.58
43.29 43.50 43.37 43.73 44.07 44.77 45.43 45.85 46.70 49.23 50.16 44.17 38.66 33.58 33.76 33.40 32.49 32.67 33.22 33.40 33.76 33.94 36.48 39.93 38.11 39.28 39.02 36.66 37.57 34.49 34.31 38.27 33.22 31.50 33.43 33.89 35.37 36.37 38.44 38.41 37.96 36.53 35.14 35.32 35.19 34.05 32.50 31.33 30.84 31.14 30.95 30.79 29.27 28.45
43.33 42.75 43.09 42.79 44.03 44.61 45.29 45.45 45.72 46.63 42.78 36.63 36.22 30.30 30.82 32.12 32.86 32.86 33.22 33.94 34.47 37.58 38.29 41.55 41.16 40.95 36.66 33.94 36.48 34.31 32.31 32.07 33.34 33.51 33.75 34.60 35.39 36.58 36.68 37.41 34.91 34.61 34.12 34.63 34.47 32.72 31.54 31.74 30.46 29.62 29.50 30.14 29.74 27.99
44.28 43.74 41.59 42.78 43.55 44.58 44.98 45.07 45.39 43.90 38.88 34.77 33.31 31.54 32.49 32.48 31.69 32.12 32.31 32.31 35.34 36.30 39.89 41.36 36.84 35.03 33.22 35.58 34.49 32.48 33.80 32.30 32.49 33.16 33.47 34.35 34.42 35.81 36.92 35.49 35.74 36.57 36.40 35.01 34.10 32.98 31.64 31.56 31.25 29.87 29.22 28.80 27.48 27.13
44.32 41.92 41.22 42.83 43.37 44.11 44.57 43.56 42.25 37.88 35.55 33.94 31.95 31.95 32.49 31.92 31.41 31.77 32.31 33.38 36.39 35.58 32.86 35.74 33.04 30.48 35.18 33.57 31.82 32.98 30.65 32.13 31.77 32.98 33.59 34.36 34.15 35.81 36.35 36.05 35.66 35.86 35.65 35.02 33.91 32.85 31.58 31.09 30.76 30.00 28.39 27.88 28.88 28.56
42.06 43.64 42.34 43.43 45.12 44.19 43.76 42.11 38.26 36.27 31.91 33.32 31.48 31.77 32.86 32.86 32.67 33.04 34.83 37.41 36.95 34.64 34.80 32.86 35.07 33.02 31.59 30.48 30.61 32.31 32.86 32.31 34.80 35.05 34.38 34.77 36.00 36.14 37.39 36.67 36.86 36.56 34.67 33.10 32.37 31.44 30.87 30.52 30.28 28.95 28.13 27.41 28.28 27.58
40.13 42.00 41.86 42.99 44.92 42.52 37.79 38.14 39.79 31.64 32.45 33.58 33.76 35.20 34.64 34.67 37.12 36.74 36.30 39.68 41.33 40.82 37.60 35.53 31.53 29.52 29.39 30.03 30.01 31.72 32.31 33.40 32.68 32.89 34.27 35.04 35.49 35.67 36.14 35.56 33.92 32.95 32.50 32.78 32.83 31.69 28.51 28.08 27.22 26.96 25.82 25.69 24.65 25.06
41.31 40.66 41.28 42.64 44.26 39.70 34.24 35.41 41.30 34.57 31.37 33.11 35.48 34.08 34.76 34.67 36.38 34.46 35.21 39.11 39.06 37.69 32.38 29.78 28.24 29.16 29.29 29.57 30.60 31.23 33.02 34.53 33.79 31.86 31.42 33.43 36.00 35.47 34.23 33.75 33.38 32.55 30.31 28.96 28.17 29.46 29.04 27.51 25.78 24.83 23.85 23.69 23.03 21.72
41.67 40.97 42.10 43.73 41.66 39.06 36.01 35.26 33.84 35.05 34.66 32.49 35.37 36.15 33.39 36.22 34.76 33.94 34.97 38.08 32.28 29.47 28.58 29.77 30.30 30.69 31.31 30.87 30.26 31.31 31.56 31.13 31.03 33.20 33.66 31.59 32.33 32.60 32.33 33.04 33.56 33.04 30.02 28.91 26.40 24.85 24.61 22.75 22.09 22.36 23.40 23.58 22.23 23.08
40.06 40.91 42.40 41.34 37.09 35.80 34.59 37.09 34.76 36.41 33.92 33.86 33.86 35.05 32.43 31.49 32.30 33.11 36.51 30.46 26.80 27.98 30.39 28.98 28.47 29.35 28.00 27.17 28.17 30.29 30.53 29.64 29.22 29.39 30.84 30.76 28.73 27.36 27.30 28.48 26.58 24.23 23.56 23.63 23.60 22.62 21.71 20.04 19.53 19.82 20.89 20.97 20.76 22.28
40.46 40.85 38.72 37.25 31.73 32.10 28.84 37.13 31.26 32.24 28.82 30.31 33.43 29.26 28.44 29.17 32.23 36.35 28.50 27.69 27.30 28.97 30.02 29.99 28.99 29.65 28.13 28.26 27.80 27.01 28.44 27.71 26.00 25.50 24.92 24.35 23.77 23.61 22.20 21.25 22.77 22.58 20.23 19.61 20.69 20.27 19.37 18.60 18.82 18.37 20.17 19.57 19.58 19.65
38.92 32.89 30.46 30.46 31.60 26.54 33.67 28.72 32.46 30.79 31.38 29.35 28.10 25.41 26.07 28.11 32.44 29.15 23.56 24.57 25.81 27.51 27.76 28.09 30.04 29.12 27.17 25.10 22.76 23.01 26.19 25.89 24.36 24.91 25.34 23.39 20.77 20.14 20.24 18.94 18.88 18.41 19.14 19.93 19.48 19.11 19.12 18.30 16.78 17.44 17.29 16.00 16.86 15.99
30.11 27.23 30.53 26.89 32.63 29.10 26.81 26.53 27.77 27.76 24.58 27.11 26.63 26.12 26.96 31.29 26.35 24.43 22.41 23.76 24.05 23.68 24.56 28.04 26.24 25.75 25.28 24.10 23.32 22.53 24.60 23.96 21.27 18.92 21.42 24.49 22.20 20.82 18.92 18.03 17.03 16.79 18.19 16.97 15.66 15.53 16.02 16.59 15.86 14.71 13.73 14.16 13.61 13.22
23.89 26.54 25.95 26.24 26.75 26.46 26.33 23.87 24.23 24.63 25.40 24.99 24.66 26.96 29.25 28.09 23.61 20.66 20.87 22.99 22.01 22.00 22.27 23.31 24.73 23.34 20.78 21.22 20.03 19.18 19.78 23.68 22.76 17.90 17.52 18.86 19.13 19.65 18.69 17.77 17.47 15.02 15.96 15.87 13.76 12.42 12.91 13.15 12.55 11.91 12.08 12.70 12.07 12.41
22.57 24.37 27.71 30.98 28.92 28.91 27.25 28.16 29.37 27.95 25.40 24.55 25.96 26.61 26.73 22.37 20.03 20.29 22.65 23.04 22.02 22.65 22.55 23.01 22.89 21.60 20.49 19.71 20.24 20.31 20.14 19.49 19.03 18.20 19.08 18.49 17.59 17.09 15.68 12.82 11.09 11.13 13.35 13.47 12.06 11.02 9.91 10.12 10.38 10.85 11.28 13.11 12.98 11.82
26.36 26.70 23.41 27.25 27.46 29.45 25.43 25.56 25.21 24.39 25.05 26.47 28.26 22.67 21.47 19.08 17.13 20.73 21.62 23.67 24.27 23.54 22.43 21.90 21.23 20.58 19.58 19.67 20.73 21.10 21.35 20.89 19.37 20.31 19.76 19.01 18.65 17.06 15.92 15.63 14.09 12.51 12.93 13.16 11.52 11.29 10.46 9.90 9.01 9.55 9.78 8.98 8.91 11.02
26.21 28.35 29.73 23.25 26.34 25.74 25.56 25.15 25.26 25.50 26.25 26.01 25.46 22.00 18.93 18.34 19.74 21.36 21.28 23.51 25.71 24.69 21.96 20.78 20.95 22.15 20.75 19.84 18.69 18.34 17.16 15.76 15.23 12.59 12.77 13.67 15.31 14.57 15.43 14.45 14.44 13.89 13.73 12.69 12.99 12.78 12.17 10.58 9.85 9.50 8.88 8.60 9.29 10.35
24.99 29.95 26.71 25.40 23.49 22.58 25.14 27.83 26.50 26.27 25.94 25.59 24.15 20.79 17.99 17.47 19.05 21.87 21.08 20.56 19.64 18.54 18.68 19.10 19.46 18.54 16.87 17.89 16.42 15.81 15.04 13.15 11.39 10.19 9.04 8.72 9.52 12.69 13.47 13.40 12.57 12.41 12.58 11.46 10.55 10.52 11.80 10.87 10.16 9.69 10.38 9.81 9.25 7.74
28.35 30.10 26.57 26.41 24.11 24.86 25.82 27.76 28.92 27.22 26.26 23.72 24.00 21.19 17.05 15.79 17.26 18.24 17.70 19.95 19.01 18.93 19.16 17.10 15.03 15.26 13.88 12.52 12.27 11.87 12.71 13.58 11.69 11.18 9.70 10.06 11.36 12.04 12.82 12.50 12.47 12.42 11.39 10.23 9.60 8.29 8.27 7.72 7.38 6.96 6.97 6.60 6.04 5.42
26.18 23.47 23.86 22.13 24.38 25.90 26.90 25.25 25.52 27.16 25.06 23.27 19.76 20.34 18.85 19.31 13.80 14.24 15.53 18.45 17.32 15.23 14.04 15.32 14.24 13.13 13.53 13.86 14.20 14.52 7.08 12.07 12.63 11.71 10.07 9.32 9.48 10.01 10.67 10.73 10.65 11.24 10.68 9.22 8.70 8.23 7.70 7.02 6.30 5.86 5.14 5.01 4.11 1.95
25.34 25.52 24.95 24.03 23.71 23.30 24.56 23.80 22.68 21.51 21.42 18.82 16.97 18.12 16.16 15.03 9.86 13.58 17.18 17.38 14.74 14.04 13.56 14.20 14.98 15.17 14.11 12.92 12.89 12.59 11.36 13.70 12.32 12.64 12.07 11.22 8.30 7.78 7.18 8.31 9.01 8.36 7.28 6.71 6.22 6.56 6.30 6.19 5.98 5.21 3.38 1.64 2.11 1.25

GFSWCAN_sfc_wetblb_027.txt.gz
Wetbulb
43.43 43.46 43.93 44.09 44.09 44.21 43.94 44.50 45.19 45.62 46.06 46.84 47.12 47.61 47.82 47.53 47.68 46.65 45.22 48.29 50.34 48.18 49.18 52.14 51.68 48.81 50.96 48.60 42.62 46.89 46.10 44.95 39.61 37.34 35.14 33.24 32.30 34.84 35.01 40.33 36.18 33.13 30.45 27.18 30.92 29.00 26.96 45.03 43.39 35.67 41.14 43.53 44.38 43.74
43.93 43.86 43.89 43.88 43.90 44.09 44.37 44.98 45.31 45.63 45.70 46.59 47.30 47.43 47.31 47.20 47.41 47.37 42.14 49.50 52.88 47.80 49.93 55.26 54.86 54.64 55.00 53.43 49.62 47.63 48.56 46.87 46.92 41.76 39.90 37.47 34.86 34.26 33.91 29.98 42.95 33.54 38.72 33.74 35.70 33.74 42.99 43.91 43.24 45.23 45.15 43.80 44.14 44.92
43.86 43.91 43.93 44.10 44.44 44.83 45.07 45.35 46.06 46.43 46.79 47.32 47.34 47.60 47.14 47.31 47.67 47.10 45.72 51.95 51.49 47.62 48.68 51.37 50.78 53.68 56.50 56.55 55.40 47.71 49.73 51.60 50.02 51.74 43.77 40.51 36.31 34.30 32.32 33.23 36.65 41.89 45.27 37.11 37.68 42.06 43.01 43.75 46.39 47.66 47.59 46.57 46.77 44.95
43.90 43.91 44.05 44.42 44.84 45.15 45.50 45.73 45.96 46.31 46.95 46.98 47.03 47.17 47.30 47.69 48.73 48.90 47.51 50.93 51.02 48.20 41.63 48.50 56.27 52.35 56.21 57.52 56.69 56.61 54.29 54.61 53.75 51.53 40.54 37.60 37.20 45.24 33.76 39.11 36.58 41.26 42.73 40.79 39.14 42.20 45.36 45.68 46.34 46.48 45.24 45.52 42.71 41.85
44.24 44.15 44.34 44.86 45.20 45.43 45.62 45.76 46.11 46.43 46.86 47.16 47.55 47.78 48.15 49.33 50.16 50.74 51.28 51.47 53.25 47.44 43.74 46.01 52.35 53.92 55.04 55.46 55.37 56.32 54.18 52.30 48.74 41.20 35.23 37.04 38.82 40.35 34.84 37.03 33.41 43.10 41.18 35.00 32.48 44.61 42.85 42.11 43.80 44.56 42.45 41.73 42.19 40.59
44.97 45.06 44.88 45.09 45.12 45.19 45.28 45.63 46.18 46.52 46.68 47.02 47.73 48.44 48.72 48.97 49.73 50.86 45.94 51.45 52.38 50.77 46.26 39.59 49.86 50.66 52.15 54.02 53.30 53.59 52.88 51.17 50.65 45.37 40.76 43.54 46.57 40.03 33.41 30.60 43.10 44.56 45.57 45.87 43.89 45.09 43.76 42.82 41.95 42.47 40.48 40.30 40.18 39.48
44.10 44.12 44.40 44.37 44.71 44.40 45.17 45.35 46.09 46.20 46.97 47.68 47.89 48.07 48.67 48.98 50.74 47.31 46.46 50.80 51.33 51.76 47.29 38.85 39.21 48.96 52.27 52.05 49.65 50.54 52.12 50.34 49.14 46.18 39.25 40.74 42.09 44.44 32.98 32.40 42.75 44.08 44.72 45.03 45.81 45.02 41.46 42.28 39.01 40.35 39.29 38.85 39.05 38.23
43.74 44.31 44.74 44.83 44.41 45.27 45.37 45.07 46.20 46.99 47.63 47.99 47.95 48.44 48.89 49.50 50.49 49.27 52.13 50.35 50.49 51.59 48.93 38.80 37.61 42.51 51.48 41.61 40.63 48.37 43.94 45.31 45.23 42.31 41.08 36.95 40.28 35.34 33.34 40.72 42.37 43.97 44.00 43.66 42.75 44.05 41.23 40.73 40.38 39.52 39.27 38.00 35.83 34.52
45.83 45.44 45.83 46.12 46.12 45.89 46.23 46.68 46.93 47.27 47.83 48.03 48.46 48.73 49.86 50.22 49.43 51.12 49.64 49.40 54.21 49.68 38.87 37.58 36.35 36.15 47.88 42.98 41.00 43.32 46.04 37.42 44.03 36.50 36.26 38.49 32.90 33.64 40.53 40.38 41.02 42.70 42.18 41.33 41.26 40.68 39.87 38.36 38.24 37.42 35.84 35.05 33.88 33.52
46.28 46.06 46.06 46.04 46.04 46.15 46.35 46.68 47.16 47.63 48.17 48.55 49.77 49.53 43.05 49.30 49.65 50.38 49.42 45.23 43.53 44.22 42.05 35.42 41.48 37.80 44.37 36.91 36.91 37.63 36.53 37.21 32.71 37.33 40.37 33.96 30.26 38.17 39.84 40.46 41.19 42.13 42.49 40.35 36.36 34.88 35.81 36.34 35.77 36.48 35.30 33.82 33.50 33.45
46.20 46.48 46.68 46.53 46.39 46.41 46.62 46.88 47.31 48.04 48.31 50.30 46.68 42.16 48.23 49.23 48.64 41.79 34.92 35.77 36.87 33.52 36.16 36.90 39.38 38.16 44.56 36.94 35.44 36.86 35.23 34.53 29.43 33.82 33.44 33.04 30.05 36.20 38.77 39.05 39.95 41.39 43.05 42.09 40.22 38.80 38.77 38.08 35.06 33.22 32.44 32.08 30.27 29.64
46.10 46.29 46.70 47.02 47.31 47.13 47.22 47.22 47.81 50.06 50.37 49.19 48.62 49.29 48.01 45.22 40.00 35.23 33.17 33.38 35.90 33.93 33.60 36.16 37.76 41.74 38.87 43.30 34.94 37.27 34.25 32.56 28.95 38.43 34.41 28.95 33.25 37.34 37.88 38.28 39.93 40.75 40.17 39.46 39.13 36.94 36.56 35.55 34.83 32.91 31.17 30.39 29.38 29.00
44.90 45.39 45.86 45.85 46.47 47.95 48.41 48.48 48.70 49.48 49.22 48.17 42.52 37.97 41.24 35.72 33.66 32.54 29.11 32.63 32.24 33.63 34.88 34.88 34.52 36.53 38.36 39.95 35.61 34.91 34.56 32.41 35.30 33.21 29.67 29.55 35.78 36.87 37.71 38.10 37.65 37.96 37.08 35.85 35.33 35.20 34.35 32.81 32.13 31.43 30.84 30.19 29.08 27.92
43.66 44.08 44.73 45.47 45.47 45.49 45.37 45.89 46.84 47.68 46.27 38.43 34.46 31.56 32.28 31.91 30.47 30.34 31.24 31.82 32.18 32.36 33.64 35.80 34.55 34.53 34.37 34.14 33.46 32.35 32.30 33.32 31.06 28.55 27.63 32.28 35.12 36.43 36.89 37.43 36.36 34.52 32.85 32.17 31.79 30.80 30.38 29.65 29.13 28.58 28.34 25.60 25.58 25.71
43.02 43.19 43.60 43.51 45.16 45.23 45.03 44.93 45.05 44.46 38.91 33.43 32.59 28.41 28.79 31.06 31.97 31.97 32.34 32.71 32.86 34.86 34.19 35.62 35.08 36.59 33.27 33.02 33.05 32.38 31.14 29.03 30.04 27.40 31.27 33.69 35.31 35.84 35.46 34.24 32.93 31.82 31.19 31.23 31.30 30.19 29.09 28.41 27.22 27.58 26.63 27.01 26.38 24.16
44.55 42.61 41.25 43.56 44.70 45.10 44.98 44.52 43.60 40.68 35.49 32.90 31.45 30.78 31.95 31.71 31.00 31.57 31.98 32.01 35.16 33.63 34.90 35.06 33.17 32.66 31.73 32.69 31.66 31.06 29.40 25.91 28.72 30.71 32.36 34.45 34.17 34.46 33.29 33.77 34.25 33.98 32.80 32.22 31.54 31.28 30.20 27.78 26.52 26.77 26.89 24.68 22.09 20.67
43.37 39.52 42.67 43.56 44.31 44.08 44.30 42.16 39.51 34.71 31.97 31.59 30.07 31.83 31.80 31.60 30.70 31.83 31.83 32.72 35.87 33.96 32.01 32.71 30.78 28.77 32.15 31.18 28.58 30.05 26.95 29.58 31.06 31.24 32.86 34.18 34.44 33.05 33.20 33.73 33.66 33.15 32.47 31.18 30.86 30.90 30.23 28.56 26.59 25.55 24.75 25.93 25.44 23.11
38.92 41.00 43.37 44.02 44.66 42.61 42.50 40.32 35.05 33.28 30.22 31.38 29.68 31.05 31.80 31.82 31.82 31.83 33.07 34.34 34.34 33.07 32.69 30.82 33.22 29.65 26.73 25.97 25.61 29.93 30.67 31.42 32.33 32.12 32.25 34.51 35.18 34.63 35.68 35.25 34.97 33.53 31.78 30.98 30.27 29.79 28.57 26.65 26.02 24.62 24.62 25.22 24.46 23.65
39.70 40.51 42.69 43.80 43.23 39.12 33.53 34.97 36.45 29.69 30.49 31.60 31.80 32.89 32.54 32.54 32.96 34.43 34.46 35.56 35.61 34.98 34.06 32.00 27.04 25.15 25.22 26.68 26.01 28.22 31.02 31.44 31.06 31.76 33.17 34.06 34.71 34.83 35.25 33.53 32.21 31.42 30.76 30.12 29.37 25.97 25.13 24.82 23.89 23.01 22.81 22.73 20.36 19.99
41.75 41.63 42.13 42.45 42.96 33.47 31.08 32.14 37.97 32.22 30.05 31.57 32.86 31.66 31.29 31.47 33.07 33.08 31.92 31.78 32.52 30.99 27.37 25.69 24.60 25.51 25.91 26.61 27.91 29.32 29.62 32.12 31.76 30.61 30.84 32.84 33.81 32.83 32.33 32.30 31.25 28.73 27.29 26.60 26.41 25.39 23.46 22.29 23.03 22.63 20.81 19.88 15.89 12.82
39.66 38.84 41.71 41.93 37.24 35.84 32.23 30.37 30.75 31.49 31.88 30.41 31.00 30.25 29.40 30.91 31.37 30.37 28.48 29.56 26.29 26.29 25.08 26.36 26.66 26.45 27.94 28.01 28.84 29.74 28.12 28.45 27.61 30.26 31.05 28.27 29.94 30.14 29.44 29.92 29.84 29.08 26.49 25.13 23.07 21.21 20.30 18.88 19.35 19.95 12.15 8.79 8.41 8.86
36.48 41.32 34.58 36.20 31.83 31.27 30.37 32.60 29.89 30.52 30.67 30.46 28.96 30.02 26.53 24.02 26.27 28.77 27.43 24.20 23.61 25.46 27.56 26.44 26.80 26.24 25.37 24.88 25.68 27.13 28.42 27.32 26.42 25.28 24.46 24.94 22.48 22.24 23.02 23.48 22.13 20.20 20.52 21.00 21.24 18.82 17.91 18.32 17.86 15.60 8.02 6.49 11.01 10.66
39.36 37.55 32.25 30.58 23.40 22.59 21.38 30.69 23.98 27.92 21.55 23.56 25.95 23.77 26.33 26.81 27.88 30.61 22.51 24.68 24.66 27.62 28.20 28.48 27.25 26.36 24.22 24.18 24.90 24.87 25.47 24.71 22.77 22.17 21.50 20.78 20.59 19.86 19.01 18.68 20.36 18.80 17.70 18.89 20.45 19.42 17.95 17.56 16.09 12.99 12.86 9.89 4.57 6.24
37.07 31.19 24.46 23.79 23.81 22.73 23.08 20.66 26.84 25.26 22.87 21.52 20.11 20.30 24.07 25.83 26.37 19.41 19.61 21.87 23.27 24.58 25.73 25.81 27.90 24.27 22.84 21.76 20.42 21.45 23.17 22.80 21.02 21.33 22.16 20.06 17.97 17.55 17.95 16.96 17.10 17.30 18.15 18.19 16.86 15.45 14.93 10.10 10.34 9.24 1.83 -1.38 -1.76 -1.27
21.74 21.34 22.98 17.12 23.78 18.44 20.02 24.62 24.51 24.26 22.87 24.51 18.73 21.60 24.53 24.44 17.78 19.08 19.14 20.38 18.33 18.55 20.40 24.31 21.25 20.59 19.91 18.84 18.87 18.70 20.70 21.43 18.04 16.04 17.20 21.44 18.82 17.28 15.87 15.24 14.43 14.19 14.55 10.64 8.42 4.21 3.35 1.39 -1.49 -2.45 -1.10 -4.24 -1.37 -1.03
21.32 25.26 23.50 24.08 24.23 24.31 24.60 21.54 22.93 23.42 24.05 22.98 23.54 25.52 25.46 22.56 15.93 14.03 18.12 18.10 16.43 16.19 17.71 18.73 20.23 15.99 16.63 17.74 16.28 15.54 16.10 20.83 18.43 13.98 14.96 15.40 14.44 14.00 12.45 10.72 10.24 7.99 9.16 2.51 -1.76 -2.60 -1.46 -1.81 -4.08 -2.30 -4.06 1.36 4.50 2.88
21.27 23.39 26.84 29.70 28.51 27.02 25.74 26.86 27.11 22.82 18.08 19.07 23.61 23.22 21.79 17.70 10.19 16.47 18.19 19.72 18.01 17.00 19.77 19.55 19.81 18.68 18.03 18.39 18.66 17.17 16.48 16.61 15.27 15.45 15.55 14.94 14.16 12.85 7.22 0.54 -0.98 3.38 3.31 1.51 -3.57 -5.50 -5.68 -5.32 -5.50 -5.50 -1.88 2.32 -0.84 -2.97
25.45 26.70 22.89 26.15 26.19 27.39 24.07 24.07 22.39 20.12 21.89 24.34 24.57 15.11 12.28 11.67 10.51 17.74 19.85 22.15 19.62 19.38 19.42 18.63 18.42 17.83 16.85 16.45 16.08 14.42 12.64 14.28 12.19 12.37 15.00 13.46 11.19 7.38 4.90 2.99 4.23 10.59 5.99 3.86 -1.37 1.98 -1.34 -1.88 -6.22 -7.13 -6.22 -6.04 -7.86 -7.52
24.67 27.69 23.03 19.85 23.86 23.88 23.68 23.55 23.04 23.68 24.44 24.07 19.73 14.87 13.43 15.56 16.74 18.06 19.87 21.07 20.95 19.45 17.18 16.52 18.64 17.03 13.73 12.97 11.15 9.01 8.07 7.10 2.69 -0.84 -2.92 -2.24 2.20 3.91 3.54 0.46 2.07 -0.36 -1.42 -1.72 5.78 7.57 3.66 1.05 2.36 -2.64 -5.50 -0.47 -0.68 -3.37
23.36 25.89 19.32 17.05 18.31 19.45 19.67 25.26 22.63 23.54 24.36 23.17 17.27 16.51 14.99 13.97 15.81 17.79 17.30 17.18 16.14 12.57 13.25 15.15 13.88 11.81 8.08 9.09 6.11 6.30 2.17 -0.58 -0.27 -3.74 -7.31 -7.86 -5.50 1.15 -0.88 4.12 0.76 -2.80 -0.79 -3.88 -4.77 -1.29 3.94 -0.58 -0.97 -6.11 -5.57 -4.11 0.57 -3.72
26.75 22.51 17.91 17.88 14.42 19.74 23.75 26.51 23.82 25.13 22.88 17.24 16.47 11.43 9.54 10.41 10.31 14.06 13.41 15.34 13.40 14.48 13.91 8.20 8.30 6.25 3.52 2.37 -0.99 -3.32 -1.17 -1.26 -1.76 0.86 -2.51 -4.80 -3.87 -4.41 3.34 5.29 4.99 -1.33 -2.61 3.45 0.95 -4.59 -7.31 -7.86 -3.87 -3.34 -8.04 -8.23 -5.14 -5.51
23.33 21.40 13.22 13.65 17.09 18.73 25.30 21.46 23.04 23.41 18.89 15.34 9.27 7.77 7.18 9.53 2.80 6.75 12.32 12.99 11.33 10.23 10.03 8.44 5.56 3.48 -0.83 -0.91 -0.71 -1.54 -0.38 -2.16 2.52 -1.58 -2.23 -4.78 -5.50 -5.14 -5.51 -4.96 -5.50 0.80 3.28 2.87 1.70 -1.93 -2.18 -1.29 -2.63 -1.42 -4.06 -5.32 -10.18 -12.48
18.03 16.30 15.48 14.05 14.89 16.07 15.72 13.72 18.20 13.62 12.22 9.63 8.72 10.76 5.97 5.65 2.04 6.17 12.37 11.04 5.22 2.28 2.84 4.61 8.97 7.68 5.33 0.83 -0.91 0.34 5.12 2.92 2.63 7.07 8.82 7.85 2.49 1.74 -3.15 -5.51 -5.14 -8.22 -8.40 -8.04 -7.13 -7.49 -5.68 -1.52 0.41 -0.60 -3.70 -9.85 -12.39 -8.76